Time,TemperatureF,DewpointF,PressureIn,WindDirection,WindDirectionDegrees,WindSpeedMPH,WindSpeedGustMPH,Humidity,HourlyPrecipIn,Conditions,Clouds,dailyrainin,SoftwareType,DateUTC
2013-01-19 00:00:00,41.2,25.8,30.02,South,181,0.0,0.0,54,0.00,CLR,SCT,0.00,WeatherDisplay:10.37,2013-01-19 05:00:00,
2013-01-19 00:02:00,41.2,25.8,30.02,SSW,202,0.0,0.0,54,0.00,CLR,SCT,0.00,WeatherDisplay:10.37,2013-01-19 05:02:00,
2013-01-19 00:04:00,41.2,25.8,30.02,SSW,202,3.5,3.5,54,0.00,CLR,SCT,0.00,WeatherDisplay:10.37,2013-01-19 05:04:00,
2013-01-19 00:07:00,40.8,25.9,30.02,SW,225,1.7,1.7,55,0.00,CLR,SCT,0.00,WeatherDisplay:10.37,2013-01-19 05:07:00,
2013-01-19 00:08:00,40.8,25.9,30.02,SW,225,1.2,1.7,55,0.00,CLR,SCT,0.00,WeatherDisplay:10.37,2013-01-19 05:08:00,
2013-01-19 00:09:00,40.8,25.9,30.02,SW,225,1.7,1.7,55,0.00,CLR,SCT,0.00,WeatherDisplay:10.37,2013-01-19 05:09:00,
2013-01-19 00:13:00,40.6,25.7,30.02,SW,225,0.0,0.0,55,0.00,CLR,SCT,0.00,WeatherDisplay:10.37,2013-01-19 05:13:00,
2013-01-19 00:14:00,40.6,25.7,30.02,SSE,158,0.0,0.0,55,0.00,CLR,SCT,0.00,WeatherDisplay:10.37,2013-01-19 05:14:00,
2013-01-19 00:15:00,40.6,25.7,30.02,SSW,212,0.0,0.0,55,0.00,CLR,SCT,0.00,WeatherDisplay:10.37,2013-01-19 05:15:00,
2013-01-19 00:18:00,40.6,25.7,30.02,South,180,0.0,0.0,55,0.00,CLR,SCT,0.00,WeatherDisplay:10.37,2013-01-19 05:18:00,
2013-01-19 00:19:00,40.6,25.7,30.02,South,180,0.0,0.0,55,0.00,CLR,SCT,0.00,WeatherDisplay:10.37,2013-01-19 05:19:00,
2013-01-19 00:21:00,40.3,25.4,30.02,South,180,0.0,0.0,55,0.00,CLR,SCT,0.00,WeatherDisplay:10.37,2013-01-19 05:21:00,
2013-01-19 00:23:00,40.3,25.4,30.02,WSW,248,0.0,0.0,55,0.00,CLR,SCT,0.00,WeatherDisplay:10.37,2013-01-19 05:23:00,
2013-01-19 00:24:00,40.3,25.4,30.02,WSW,248,0.0,0.0,55,0.00,CLR,SCT,0.00,WeatherDisplay:10.37,2013-01-19 05:24:00,
2013-01-19 00:26:00,40.3,25.4,30.02,WSW,248,0.0,0.0,55,0.00,CLR,SCT,0.00,WeatherDisplay:10.37,2013-01-19 05:26:00,
2013-01-19 00:28:00,40.3,25.4,30.02,SSW,202,0.0,0.0,55,0.00,CLR,SCT,0.00,WeatherDisplay:10.37,2013-01-19 05:28:00,
2013-01-19 00:29:00,40.3,25.4,30.02,SSW,202,0.0,0.0,55,0.00,CLR,SCT,0.00,WeatherDisplay:10.37,2013-01-19 05:29:00,
2013-01-19 00:32:00,40.3,25.4,30.02,South,180,0.0,0.0,55,0.00,CLR,SCT,0.00,WeatherDisplay:10.37,2013-01-19 05:32:00,
2013-01-19 00:33:00,40.5,26.0,30.01,SSW,202,0.0,0.0,56,0.00,CLR,SCT,0.00,WeatherDisplay:10.37,2013-01-19 05:33:00,
2013-01-19 00:35:00,40.6,25.7,30.01,SW,225,0.0,0.0,55,0.00,CLR,SCT,0.00,WeatherDisplay:10.37,2013-01-19 05:35:00,
2013-01-19 00:37:00,40.6,25.7,30.02,SW,225,0.0,0.0,55,0.00,CLR,SCT,0.00,WeatherDisplay:10.37,2013-01-19 05:37:00,
2013-01-19 00:38:00,40.6,25.7,30.01,South,180,0.0,0.0,55,0.00,CLR,SCT,0.00,WeatherDisplay:10.37,2013-01-19 05:38:00,
2013-01-19 00:39:00,40.6,25.7,30.01,South,180,0.0,0.0,55,0.00,CLR,SCT,0.00,WeatherDisplay:10.37,2013-01-19 05:39:00,
2013-01-19 00:42:00,40.6,25.7,30.02,SSW,202,0.0,0.0,55,0.00,CLR,SCT,0.00,WeatherDisplay:10.37,2013-01-19 05:42:00,
2013-01-19 00:43:00,40.6,25.7,30.02,SSW,202,0.0,0.0,55,0.00,CLR,SCT,0.00,WeatherDisplay:10.37,2013-01-19 05:43:00,
2013-01-19 00:44:00,40.6,25.7,30.02,SSW,202,0.0,0.0,55,0.00,CLR,SCT,0.00,WeatherDisplay:10.37,2013-01-19 05:44:00,
2013-01-19 00:45:00,40.6,25.7,30.02,SSW,205,0.0,0.0,55,0.00,CLR,SCT,0.00,WeatherDisplay:10.37,2013-01-19 05:45:00,
2013-01-19 00:48:00,40.5,26.0,30.02,WSW,248,0.0,0.0,56,0.00,CLR,SCT,0.00,WeatherDisplay:10.37,2013-01-19 05:48:00,
2013-01-19 00:49:00,40.5,26.0,30.02,WSW,248,0.0,0.0,56,0.00,CLR,SCT,0.00,WeatherDisplay:10.37,2013-01-19 05:49:00,
2013-01-19 00:50:00,40.5,25.5,30.01,SE,135,0.0,0.0,55,0.00,CLR,SCT,0.00,WeatherDisplay:10.37,2013-01-19 05:50:00,
2013-01-19 00:53:00,40.6,25.7,30.01,ESE,112,0.0,0.0,55,0.00,CLR,SCT,0.00,WeatherDisplay:10.37,2013-01-19 05:53:00,
2013-01-19 00:55:00,40.6,25.7,30.01,WSW,248,1.2,1.2,55,0.00,CLR,SCT,0.00,WeatherDisplay:10.37,2013-01-19 05:55:00,
2013-01-19 00:58:00,40.6,25.7,30.01,SW,225,0.0,0.0,55,0.00,CLR,SCT,0.00,WeatherDisplay:10.37,2013-01-19 05:58:00,
2013-01-19 00:59:00,40.6,25.7,30.01,SW,225,0.0,0.0,55,0.00,CLR,SCT,0.00,WeatherDisplay:10.37,2013-01-19 05:59:00,
2013-01-19 01:00:00,40.6,25.7,30.01,South,179,0.0,1.0,55,0.00,CLR,SCT,0.00,WeatherDisplay:10.37,2013-01-19 06:00:00,
2013-01-19 01:01:00,40.6,25.7,30.01,SW,225,0.0,0.0,55,0.00,CLR,SCT,0.00,WeatherDisplay:10.37,2013-01-19 06:01:00,
2013-01-19 01:04:00,40.6,25.7,30.01,SW,225,1.3,1.3,55,0.00,CLR,SCT,0.00,WeatherDisplay:10.37,2013-01-19 06:04:00,
2013-01-19 01:05:00,40.6,25.7,30.01,SW,225,1.3,1.3,55,0.00,CLR,SCT,0.00,WeatherDisplay:10.37,2013-01-19 06:05:00,
2013-01-19 01:07:00,40.6,25.7,30.01,SSE,158,0.0,0.0,55,0.00,CLR,SCT,0.00,WeatherDisplay:10.37,2013-01-19 06:07:00,
2013-01-19 01:09:00,40.6,25.7,30.01,SSW,202,4.6,4.6,55,0.00,CLR,SCT,0.00,WeatherDisplay:10.37,2013-01-19 06:09:00,
2013-01-19 01:11:00,40.6,25.7,30.01,SSW,202,0.0,0.0,55,0.00,CLR,SCT,0.00,WeatherDisplay:10.37,2013-01-19 06:11:00,
2013-01-19 01:13:00,40.6,25.7,30.01,SW,225,0.0,0.0,55,0.00,CLR,SCT,0.00,WeatherDisplay:10.37,2013-01-19 06:13:00,
2013-01-19 01:14:00,40.6,25.7,30.01,South,180,0.0,0.0,55,0.00,CLR,SCT,0.00,WeatherDisplay:10.37,2013-01-19 06:14:00,
2013-01-19 01:15:00,40.6,25.7,30.01,SSW,196,0.0,0.0,55,0.00,CLR,SCT,0.00,WeatherDisplay:10.37,2013-01-19 06:15:00,
2013-01-19 01:16:00,40.6,25.7,30.01,South,180,0.0,0.0,55,0.00,CLR,SCT,0.00,WeatherDisplay:10.37,2013-01-19 06:16:00,
2013-01-19 01:18:00,40.3,25.4,30.01,SSW,202,0.0,0.0,55,0.00,CLR,SCT,0.00,WeatherDisplay:10.37,2013-01-19 06:18:00,
2013-01-19 01:19:00,40.3,25.4,30.01,SSW,202,0.0,0.0,55,0.00,CLR,SCT,0.00,WeatherDisplay:10.37,2013-01-19 06:19:00,
2013-01-19 01:21:00,40.6,25.7,30.01,SSW,202,0.0,0.0,55,0.00,CLR,SCT,0.00,WeatherDisplay:10.37,2013-01-19 06:21:00,
2013-01-19 01:22:00,40.6,25.7,30.01,SSW,202,0.0,0.0,55,0.00,CLR,SCT,0.00,WeatherDisplay:10.37,2013-01-19 06:22:00,
2013-01-19 01:23:00,40.6,25.7,30.01,SSW,202,0.0,0.0,55,0.00,CLR,SCT,0.00,WeatherDisplay:10.37,2013-01-19 06:23:00,
2013-01-19 01:26:00,40.6,25.7,30.01,WSW,248,0.0,0.0,55,0.00,CLR,SCT,0.00,WeatherDisplay:10.37,2013-01-19 06:26:00,
2013-01-19 01:27:00,40.6,25.7,30.01,SSW,202,0.0,0.0,55,0.00,CLR,SCT,0.00,WeatherDisplay:10.37,2013-01-19 06:27:00,
2013-01-19 01:28:00,40.6,25.7,30.01,SSW,202,0.0,0.0,55,0.00,CLR,SCT,0.00,WeatherDisplay:10.37,2013-01-19 06:28:00,
2013-01-19 01:32:00,40.6,25.7,30.01,South,180,0.0,0.0,55,0.00,CLR,SCT,0.00,WeatherDisplay:10.37,2013-01-19 06:32:00,
2013-01-19 01:33:00,40.6,25.7,30.01,South,180,3.8,3.8,55,0.00,CLR,SCT,0.00,WeatherDisplay:10.37,2013-01-19 06:33:00,
2013-01-19 01:34:00,40.6,25.7,30.01,South,187,3.0,4.0,55,0.00,CLR,SCT,0.00,WeatherDisplay:10.37,2013-01-19 06:34:00,
2013-01-19 01:37:00,40.6,25.7,30.01,South,180,0.0,0.0,55,0.00,CLR,SCT,0.00,WeatherDisplay:10.37,2013-01-19 06:37:00,
2013-01-19 01:38:00,40.5,25.5,30.01,South,180,0.0,0.0,55,0.00,CLR,SCT,0.00,WeatherDisplay:10.37,2013-01-19 06:38:00,
2013-01-19 01:40:00,40.5,25.5,30.01,South,180,0.0,0.0,55,0.00,CLR,SCT,0.00,WeatherDisplay:10.37,2013-01-19 06:40:00,
2013-01-19 01:42:00,40.3,25.4,30.01,South,180,0.0,0.0,55,0.00,CLR,SCT,0.00,WeatherDisplay:10.37,2013-01-19 06:42:00,
2013-01-19 01:44:00,40.6,25.7,30.01,West,270,0.0,0.0,55,0.00,CLR,SCT,0.00,WeatherDisplay:10.37,2013-01-19 06:44:00,
2013-01-19 01:45:00,40.6,25.7,30.01,West,270,0.0,0.0,55,0.00,CLR,SCT,0.00,WeatherDisplay:10.37,2013-01-19 06:45:00,
2013-01-19 01:49:00,40.6,25.7,30.01,West,270,0.0,0.0,55,0.00,CLR,SCT,0.00,WeatherDisplay:10.37,2013-01-19 06:49:00,
2013-01-19 01:50:00,40.6,25.7,30.01,West,270,0.0,0.0,55,0.00,CLR,SCT,0.00,WeatherDisplay:10.37,2013-01-19 06:50:00,
2013-01-19 01:51:00,40.6,25.7,30.01,South,180,0.0,0.0,55,0.00,CLR,SCT,0.00,WeatherDisplay:10.37,2013-01-19 06:51:00,
2013-01-19 01:55:00,40.8,25.9,30.01,SSW,202,0.0,0.0,55,0.00,CLR,SCT,0.00,WeatherDisplay:10.37,2013-01-19 06:55:00,
2013-01-19 01:57:00,40.6,25.7,30.01,South,180,0.0,0.0,55,0.00,CLR,SCT,0.00,WeatherDisplay:10.37,2013-01-19 06:57:00,
2013-01-19 01:59:00,40.6,25.7,30.01,SW,225,0.0,0.0,55,0.00,CLR,SCT,0.00,WeatherDisplay:10.37,2013-01-19 06:59:00,
2013-01-19 02:00:00,40.6,25.7,30.01,SW,225,0.0,0.0,55,0.00,CLR,SCT,0.00,WeatherDisplay:10.37,2013-01-19 07:00:00,
2013-01-19 02:01:00,40.6,25.7,30.01,South,180,0.0,0.0,55,0.00,CLR,SCT,0.00,WeatherDisplay:10.37,2013-01-19 07:01:00,
2013-01-19 02:03:00,40.6,25.7,30.01,South,180,0.0,0.0,55,0.00,CLR,SCT,0.00,WeatherDisplay:10.37,2013-01-19 07:03:00,
2013-01-19 02:04:00,40.6,25.7,30.01,South,180,0.0,0.0,55,0.00,CLR,SCT,0.00,WeatherDisplay:10.37,2013-01-19 07:04:00,
2013-01-19 02:06:00,40.6,25.7,30.01,South,180,0.0,0.0,55,0.00,CLR,SCT,0.00,WeatherDisplay:10.37,2013-01-19 07:06:00,
2013-01-19 02:07:00,40.6,25.7,30.01,South,180,0.0,0.0,55,0.00,CLR,SCT,0.00,WeatherDisplay:10.37,2013-01-19 07:07:00,
2013-01-19 02:08:00,40.6,25.7,30.01,SSW,202,1.2,1.2,55,0.00,CLR,SCT,0.00,WeatherDisplay:10.37,2013-01-19 07:08:00,
2013-01-19 02:10:00,40.6,25.7,30.01,SSE,158,1.2,1.2,55,0.00,CLR,SCT,0.00,WeatherDisplay:10.37,2013-01-19 07:10:00,
2013-01-19 02:11:00,40.6,25.7,30.01,SSE,158,1.2,1.2,55,0.00,CLR,SCT,0.00,WeatherDisplay:10.37,2013-01-19 07:11:00,
2013-01-19 02:13:00,40.8,25.9,30.01,West,270,0.0,0.0,55,0.00,CLR,SCT,0.00,WeatherDisplay:10.37,2013-01-19 07:13:00,
2013-01-19 02:14:00,40.8,25.9,30.01,SSW,202,0.0,0.0,55,0.00,CLR,SCT,0.00,WeatherDisplay:10.37,2013-01-19 07:14:00,
2013-01-19 02:15:00,40.8,25.9,30.01,SSW,202,0.0,0.0,55,0.00,CLR,SCT,0.00,WeatherDisplay:10.37,2013-01-19 07:15:00,
2013-01-19 02:16:00,40.8,25.9,30.01,SSW,202,0.0,0.0,55,0.00,CLR,SCT,0.00,WeatherDisplay:10.37,2013-01-19 07:16:00,
2013-01-19 02:19:00,40.6,25.7,30.01,South,180,0.0,0.0,55,0.00,CLR,SCT,0.00,WeatherDisplay:10.37,2013-01-19 07:19:00,
2013-01-19 02:20:00,40.6,25.7,30.01,South,180,0.0,0.0,55,0.00,CLR,SCT,0.00,WeatherDisplay:10.37,2013-01-19 07:20:00,
2013-01-19 02:21:00,40.6,26.2,30.01,SSE,158,0.0,0.0,56,0.00,CLR,SCT,0.00,WeatherDisplay:10.37,2013-01-19 07:21:00,
2013-01-19 02:22:00,40.6,26.2,30.01,SSE,158,0.0,0.0,56,0.00,CLR,SCT,0.00,WeatherDisplay:10.37,2013-01-19 07:22:00,
2013-01-19 02:24:00,40.6,26.2,30.01,SSE,158,0.0,0.0,56,0.00,CLR,SCT,0.00,WeatherDisplay:10.37,2013-01-19 07:24:00,
2013-01-19 02:27:00,40.3,25.4,30.01,SSE,158,0.0,0.0,55,0.00,CLR,SCT,0.00,WeatherDisplay:10.37,2013-01-19 07:27:00,
2013-01-19 02:28:00,40.3,25.4,30.01,SSE,158,0.0,0.0,55,0.00,CLR,SCT,0.00,WeatherDisplay:10.37,2013-01-19 07:28:00,
2013-01-19 02:30:00,40.3,25.4,30.01,SSE,158,0.0,0.0,55,0.00,CLR,SCT,0.00,WeatherDisplay:10.37,2013-01-19 07:30:00,
2013-01-19 02:33:00,40.1,25.6,30.00,SW,225,3.5,3.8,56,0.00,CLR,SCT,0.00,WeatherDisplay:10.37,2013-01-19 07:33:00,
2013-01-19 02:35:00,40.3,25.8,30.00,SW,225,0.0,0.0,56,0.00,CLR,SCT,0.00,WeatherDisplay:10.37,2013-01-19 07:35:00,
2013-01-19 02:37:00,40.3,25.8,30.01,South,180,0.0,0.0,56,0.00,CLR,SCT,0.00,WeatherDisplay:10.37,2013-01-19 07:37:00,
2013-01-19 02:38:00,40.3,25.8,30.00,SW,225,0.0,0.0,56,0.00,CLR,SCT,0.00,WeatherDisplay:10.37,2013-01-19 07:38:00,
2013-01-19 02:40:00,40.3,25.8,30.00,SSW,202,0.0,0.0,56,0.00,CLR,SCT,0.00,WeatherDisplay:10.37,2013-01-19 07:40:00,
2013-01-19 02:43:00,40.3,25.8,30.01,SSW,202,0.0,0.0,56,0.00,CLR,SCT,0.00,WeatherDisplay:10.37,2013-01-19 07:43:00,
2013-01-19 02:46:00,40.1,25.6,30.01,SSW,202,0.0,0.0,56,0.00,CLR,SCT,0.00,WeatherDisplay:10.37,2013-01-19 07:46:00,
2013-01-19 02:48:00,40.1,25.6,30.00,SSW,202,0.0,0.0,56,0.00,CLR,SCT,0.00,WeatherDisplay:10.37,2013-01-19 07:48:00,
2013-01-19 02:49:00,40.1,25.6,30.00,SSW,202,2.4,2.4,56,0.00,CLR,SCT,0.00,WeatherDisplay:10.37,2013-01-19 07:49:00,
2013-01-19 02:52:00,40.3,25.8,30.00,SSW,202,0.0,0.0,56,0.00,CLR,SCT,0.00,WeatherDisplay:10.37,2013-01-19 07:52:00,
2013-01-19 02:55:00,40.6,26.2,30.00,South,180,0.0,0.0,56,0.00,CLR,SCT,0.00,WeatherDisplay:10.37,2013-01-19 07:55:00,
2013-01-19 02:57:00,40.6,26.2,30.00,South,180,2.3,2.3,56,0.00,CLR,SCT,0.00,WeatherDisplay:10.37,2013-01-19 07:57:00,
2013-01-19 02:58:00,40.6,26.2,30.00,South,180,2.3,2.3,56,0.00,CLR,SCT,0.00,WeatherDisplay:10.37,2013-01-19 07:58:00,
2013-01-19 03:02:00,40.8,26.3,30.00,South,180,2.3,2.3,56,0.00,CLR,SCT,0.00,WeatherDisplay:10.37,2013-01-19 08:02:00,
2013-01-19 03:04:00,40.8,26.3,30.00,SSE,158,2.3,0.0,56,0.00,CLR,SCT,0.00,WeatherDisplay:10.37,2013-01-19 08:04:00,
2013-01-19 03:07:00,40.8,26.3,30.00,SSE,158,0.0,0.0,56,0.00,CLR,SCT,0.00,WeatherDisplay:10.37,2013-01-19 08:07:00,
2013-01-19 03:09:00,40.6,26.2,30.01,SSW,202,0.0,0.0,56,0.00,CLR,SCT,0.00,WeatherDisplay:10.37,2013-01-19 08:09:00,
2013-01-19 03:11:00,40.6,26.2,30.00,South,180,2.4,2.4,56,0.00,CLR,SCT,0.00,WeatherDisplay:10.37,2013-01-19 08:11:00,
2013-01-19 03:12:00,40.8,26.3,30.00,SSE,158,0.0,0.0,56,0.00,CLR,SCT,0.00,WeatherDisplay:10.37,2013-01-19 08:12:00,
2013-01-19 03:16:00,40.8,26.3,30.00,SW,225,3.5,3.5,56,0.00,CLR,SCT,0.00,WeatherDisplay:10.37,2013-01-19 08:16:00,
2013-01-19 03:17:00,40.8,26.3,30.00,SW,225,3.5,0.0,56,0.00,CLR,SCT,0.00,WeatherDisplay:10.37,2013-01-19 08:17:00,
2013-01-19 03:19:00,40.6,26.2,30.00,SE,135,0.0,0.0,56,0.00,CLR,SCT,0.00,WeatherDisplay:10.37,2013-01-19 08:19:00,
2013-01-19 03:21:00,40.6,26.2,30.00,SSE,158,2.4,2.4,56,0.00,CLR,SCT,0.00,WeatherDisplay:10.37,2013-01-19 08:21:00,
2013-01-19 03:22:00,40.6,26.2,30.00,SSE,158,2.4,2.4,56,0.00,CLR,SCT,0.00,WeatherDisplay:10.37,2013-01-19 08:22:00,
2013-01-19 03:24:00,40.6,26.2,30.00,SSE,158,0.0,0.0,56,0.00,CLR,SCT,0.00,WeatherDisplay:10.37,2013-01-19 08:24:00,
2013-01-19 03:26:00,40.6,26.2,30.00,WSW,248,3.5,3.5,56,0.00,CLR,SCT,0.00,WeatherDisplay:10.37,2013-01-19 08:26:00,
2013-01-19 03:27:00,40.6,26.2,30.00,WSW,248,3.5,3.5,56,0.00,CLR,SCT,0.00,WeatherDisplay:10.37,2013-01-19 08:27:00,
2013-01-19 03:29:00,40.8,26.3,30.00,West,270,0.0,0.0,56,0.00,CLR,SCT,0.00,WeatherDisplay:10.37,2013-01-19 08:29:00,
2013-01-19 03:33:00,41.2,26.7,30.00,South,180,3.5,3.5,56,0.00,CLR,SCT,0.00,WeatherDisplay:10.37,2013-01-19 08:33:00,
2013-01-19 03:34:00,41.2,26.7,29.99,South,180,1.2,1.2,56,0.00,CLR,SCT,0.00,WeatherDisplay:10.37,2013-01-19 08:34:00,
2013-01-19 03:35:00,41.2,26.7,29.99,SSW,205,1.0,3.0,56,0.00,CLR,SCT,0.00,WeatherDisplay:10.37,2013-01-19 08:35:00,
2013-01-19 03:38:00,41.2,26.7,30.00,SSW,202,2.4,2.4,56,0.00,CLR,SCT,0.00,WeatherDisplay:10.37,2013-01-19 08:38:00,
2013-01-19 03:40:00,41.0,26.5,30.00,South,176,0.0,2.0,56,0.00,CLR,SCT,0.00,WeatherDisplay:10.37,2013-01-19 08:40:00,
2013-01-19 03:42:00,40.8,26.3,29.99,WSW,248,0.0,0.0,56,0.00,CLR,SCT,0.00,WeatherDisplay:10.37,2013-01-19 08:42:00,
2013-01-19 03:44:00,40.8,26.3,29.99,South,180,0.0,0.0,56,0.00,CLR,SCT,0.00,WeatherDisplay:10.37,2013-01-19 08:44:00,
2013-01-19 03:45:00,40.8,26.3,29.99,South,180,0.0,0.0,56,0.00,CLR,SCT,0.00,WeatherDisplay:10.37,2013-01-19 08:45:00,
2013-01-19 03:47:00,40.8,26.3,29.99,SW,225,0.0,0.0,56,0.00,CLR,SCT,0.00,WeatherDisplay:10.37,2013-01-19 08:47:00,
2013-01-19 03:50:00,40.8,26.3,29.99,SSW,202,1.2,0.0,56,0.00,CLR,SCT,0.00,WeatherDisplay:10.37,2013-01-19 08:50:00,
2013-01-19 03:53:00,41.0,26.5,29.99,SSW,202,1.2,1.2,56,0.00,CLR,SCT,0.00,WeatherDisplay:10.37,2013-01-19 08:53:00,
2013-01-19 03:55:00,41.2,26.7,29.99,SSW,202,0.0,0.0,56,0.00,CLR,SCT,0.00,WeatherDisplay:10.37,2013-01-19 08:55:00,
2013-01-19 03:58:00,41.5,27.0,29.99,SSW,202,0.0,0.0,56,0.00,CLR,SCT,0.00,WeatherDisplay:10.37,2013-01-19 08:58:00,
2013-01-19 04:00:00,41.4,26.8,29.99,South,180,2.3,2.6,56,0.00,CLR,SCT,0.00,WeatherDisplay:10.37,2013-01-19 09:00:00,
2013-01-19 04:02:00,41.4,27.3,29.99,SW,225,0.0,0.0,57,0.00,CLR,SCT,0.00,WeatherDisplay:10.37,2013-01-19 09:02:00,
2013-01-19 04:03:00,41.2,26.7,29.99,South,180,0.0,0.0,56,0.00,CLR,SCT,0.00,WeatherDisplay:10.37,2013-01-19 09:03:00,
2013-01-19 04:06:00,41.2,26.7,29.99,South,180,2.3,2.3,56,0.00,CLR,SCT,0.00,WeatherDisplay:10.37,2013-01-19 09:06:00,
2013-01-19 04:07:00,41.4,26.8,29.99,SSW,202,10.5,10.5,56,0.00,CLR,SCT,0.00,WeatherDisplay:10.37,2013-01-19 09:07:00,
2013-01-19 04:08:00,41.4,26.8,29.99,SSW,202,3.5,3.5,56,0.00,CLR,SCT,0.00,WeatherDisplay:10.37,2013-01-19 09:08:00,
2013-01-19 04:09:00,41.4,26.8,29.99,SSW,202,0.0,0.4,56,0.00,CLR,SCT,0.00,WeatherDisplay:10.37,2013-01-19 09:09:00,
2013-01-19 04:12:00,41.7,27.2,29.99,SE,135,3.5,3.5,56,0.00,CLR,SCT,0.00,WeatherDisplay:10.37,2013-01-19 09:12:00,
2013-01-19 04:13:00,41.7,27.2,29.99,SE,135,0.4,0.4,56,0.00,CLR,SCT,0.00,WeatherDisplay:10.37,2013-01-19 09:13:00,
2013-01-19 04:14:00,41.7,27.2,29.99,South,180,0.0,0.0,56,0.00,CLR,SCT,0.00,WeatherDisplay:10.37,2013-01-19 09:14:00,
2013-01-19 04:15:00,41.7,27.2,29.99,SSW,198,0.0,3.0,56,0.00,CLR,SCT,0.00,WeatherDisplay:10.37,2013-01-19 09:15:00,
2013-01-19 04:17:00,41.5,27.0,29.99,West,270,0.0,0.0,56,0.00,CLR,SCT,0.00,WeatherDisplay:10.37,2013-01-19 09:17:00,
2013-01-19 04:19:00,41.5,27.0,29.99,SSE,158,0.0,0.0,56,0.00,CLR,SCT,0.00,WeatherDisplay:10.37,2013-01-19 09:19:00,
2013-01-19 04:20:00,41.4,27.3,29.99,SE,135,0.0,0.0,57,0.00,CLR,SCT,0.00,WeatherDisplay:10.37,2013-01-19 09:20:00,
2013-01-19 04:22:00,41.4,27.3,29.99,SE,135,0.0,0.0,57,0.00,CLR,SCT,0.00,WeatherDisplay:10.37,2013-01-19 09:22:00,
2013-01-19 04:25:00,41.2,26.7,29.99,SSW,202,3.5,3.5,56,0.00,CLR,SCT,0.00,WeatherDisplay:10.37,2013-01-19 09:25:00,
2013-01-19 04:26:00,41.2,26.7,29.99,SSW,202,3.5,3.5,56,0.00,CLR,SCT,0.00,WeatherDisplay:10.37,2013-01-19 09:26:00,
2013-01-19 04:27:00,41.4,27.3,29.99,SW,225,1.2,1.2,57,0.00,CLR,SCT,0.00,WeatherDisplay:10.37,2013-01-19 09:27:00,
2013-01-19 04:30:00,41.4,27.3,29.99,South,190,2.0,3.0,57,0.00,CLR,SCT,0.00,WeatherDisplay:10.37,2013-01-19 09:30:00,
2013-01-19 04:31:00,41.4,27.3,29.99,West,270,0.0,0.0,57,0.00,CLR,SCT,0.00,WeatherDisplay:10.37,2013-01-19 09:31:00,
2013-01-19 04:33:00,41.5,27.4,29.99,South,180,3.5,3.5,57,0.00,CLR,SCT,0.00,WeatherDisplay:10.37,2013-01-19 09:33:00,
2013-01-19 04:37:00,41.5,27.4,29.99,SW,225,0.0,0.0,57,0.00,CLR,SCT,0.00,WeatherDisplay:10.37,2013-01-19 09:37:00,
2013-01-19 04:38:00,41.5,27.4,29.99,SW,225,6.9,6.9,57,0.00,CLR,SCT,0.00,WeatherDisplay:10.37,2013-01-19 09:38:00,
2013-01-19 04:39:00,41.7,27.6,29.99,South,180,3.5,4.0,57,0.00,CLR,SCT,0.00,WeatherDisplay:10.37,2013-01-19 09:39:00,
2013-01-19 04:40:00,41.7,27.6,29.99,SSW,205,3.0,7.0,57,0.00,CLR,SCT,0.00,WeatherDisplay:10.37,2013-01-19 09:40:00,
2013-01-19 04:42:00,41.5,27.4,29.99,SSE,158,1.2,0.0,57,0.00,CLR,SCT,0.00,WeatherDisplay:10.37,2013-01-19 09:42:00,
2013-01-19 04:44:00,41.5,27.4,29.98,South,180,11.5,12.0,57,0.00,CLR,SCT,0.00,WeatherDisplay:10.37,2013-01-19 09:44:00,
2013-01-19 04:45:00,41.5,27.4,29.98,SW,225,11.5,11.5,57,0.00,CLR,SCT,0.00,WeatherDisplay:10.37,2013-01-19 09:45:00,
2013-01-19 04:48:00,41.5,27.4,29.98,WSW,248,4.0,4.0,57,0.00,CLR,SCT,0.00,WeatherDisplay:10.37,2013-01-19 09:48:00,
2013-01-19 04:50:00,41.5,27.4,29.98,South,180,8.6,8.6,57,0.00,CLR,SCT,0.00,WeatherDisplay:10.37,2013-01-19 09:50:00,
2013-01-19 04:51:00,41.5,27.4,29.98,SSE,158,8.1,0.0,57,0.00,CLR,SCT,0.00,WeatherDisplay:10.37,2013-01-19 09:51:00,
2013-01-19 04:53:00,41.5,27.4,29.98,South,180,0.0,0.0,57,0.00,CLR,SCT,0.00,WeatherDisplay:10.37,2013-01-19 09:53:00,
2013-01-19 04:55:00,41.5,27.4,29.98,SSE,158,0.0,0.0,57,0.00,CLR,SCT,0.00,WeatherDisplay:10.37,2013-01-19 09:55:00,
2013-01-19 04:56:00,41.5,27.4,29.98,SSE,158,0.0,0.0,57,0.00,CLR,SCT,0.00,WeatherDisplay:10.37,2013-01-19 09:56:00,
2013-01-19 04:57:00,41.5,27.4,29.98,SSE,158,0.0,0.0,57,0.00,CLR,SCT,0.00,WeatherDisplay:10.37,2013-01-19 09:57:00,
2013-01-19 04:59:00,41.5,27.4,29.98,WNW,292,0.0,0.0,57,0.00,CLR,SCT,0.00,WeatherDisplay:10.37,2013-01-19 09:59:00,
2013-01-19 05:00:00,41.4,27.3,29.98,SSE,158,1.2,1.7,57,0.00,CLR,SCT,0.00,WeatherDisplay:10.37,2013-01-19 10:00:00,
2013-01-19 05:02:00,41.5,27.4,29.98,SSW,202,3.5,3.5,57,0.00,CLR,SCT,0.00,WeatherDisplay:10.37,2013-01-19 10:02:00,
2013-01-19 05:05:00,41.5,27.4,29.98,South,188,1.0,4.0,57,0.00,CLR,SCT,0.00,WeatherDisplay:10.37,2013-01-19 10:05:00,
2013-01-19 05:08:00,41.7,27.6,29.98,SSW,202,0.0,0.0,57,0.00,CLR,SCT,0.00,WeatherDisplay:10.37,2013-01-19 10:08:00,
2013-01-19 05:10:00,41.7,27.6,29.98,SW,225,6.1,6.1,57,0.00,CLR,SCT,0.00,WeatherDisplay:10.37,2013-01-19 10:10:00,
2013-01-19 05:11:00,41.7,27.6,29.98,West,270,2.3,2.3,57,0.00,CLR,SCT,0.00,WeatherDisplay:10.37,2013-01-19 10:11:00,
2013-01-19 05:15:00,41.7,28.0,29.98,WSW,248,2.3,0.0,58,0.00,CLR,SCT,0.00,WeatherDisplay:10.37,2013-01-19 10:15:00,
2013-01-19 05:16:00,41.7,28.0,29.98,WSW,248,0.0,0.0,58,0.00,CLR,SCT,0.00,WeatherDisplay:10.37,2013-01-19 10:16:00,
2013-01-19 05:21:00,41.7,27.6,29.97,SSW,202,1.2,1.5,57,0.00,CLR,SCT,0.00,WeatherDisplay:10.37,2013-01-19 10:21:00,
2013-01-19 05:22:00,41.7,27.6,29.97,SSW,202,1.2,1.5,57,0.00,CLR,SCT,0.00,WeatherDisplay:10.37,2013-01-19 10:22:00,
2013-01-19 05:24:00,41.9,27.8,29.97,SW,225,4.0,4.0,57,0.00,CLR,SCT,0.00,WeatherDisplay:10.37,2013-01-19 10:24:00,
2013-01-19 05:25:00,41.9,27.8,29.97,SW,225,3.5,3.5,57,0.00,CLR,SCT,0.00,WeatherDisplay:10.37,2013-01-19 10:25:00,
2013-01-19 05:29:00,41.7,27.6,29.97,SE,135,5.8,5.8,57,0.00,CLR,SCT,0.00,WeatherDisplay:10.37,2013-01-19 10:29:00,
2013-01-19 05:30:00,41.9,27.8,29.97,SSW,202,2.3,2.3,57,0.00,CLR,SCT,0.00,WeatherDisplay:10.37,2013-01-19 10:30:00,
2013-01-19 05:31:00,41.9,27.8,29.97,SSW,202,2.3,2.3,57,0.00,CLR,SCT,0.00,WeatherDisplay:10.37,2013-01-19 10:31:00,
2013-01-19 05:34:00,41.7,28.0,29.97,SSW,202,2.3,2.3,58,0.00,CLR,SCT,0.00,WeatherDisplay:10.37,2013-01-19 10:34:00,
2013-01-19 05:35:00,41.7,28.0,29.97,SSW,202,2.3,2.3,58,0.00,CLR,SCT,0.00,WeatherDisplay:10.37,2013-01-19 10:35:00,
2013-01-19 05:36:00,41.7,27.6,29.97,SW,225,2.3,0.0,57,0.00,CLR,SCT,0.00,WeatherDisplay:10.37,2013-01-19 10:36:00,
2013-01-19 05:37:00,41.7,27.6,29.97,SW,225,0.0,0.0,57,0.00,CLR,SCT,0.00,WeatherDisplay:10.37,2013-01-19 10:37:00,
2013-01-19 05:39:00,41.7,28.0,29.97,South,180,1.2,1.2,58,0.00,CLR,SCT,0.00,WeatherDisplay:10.37,2013-01-19 10:39:00,
2013-01-19 05:41:00,41.7,28.0,29.97,SE,135,1.2,0.0,58,0.00,CLR,SCT,0.00,WeatherDisplay:10.37,2013-01-19 10:41:00,
2013-01-19 05:43:00,41.5,27.8,29.97,SW,225,0.0,0.0,58,0.00,CLR,SCT,0.00,WeatherDisplay:10.37,2013-01-19 10:43:00,
2013-01-19 05:44:00,41.5,27.8,29.97,SW,225,0.0,0.0,58,0.00,CLR,SCT,0.00,WeatherDisplay:10.37,2013-01-19 10:44:00,
2013-01-19 05:47:00,41.4,27.7,29.97,SW,225,0.0,0.0,58,0.00,CLR,SCT,0.00,WeatherDisplay:10.37,2013-01-19 10:47:00,
2013-01-19 05:49:00,41.5,27.8,29.97,SSW,202,0.0,0.0,58,0.00,CLR,SCT,0.00,WeatherDisplay:10.37,2013-01-19 10:49:00,
2013-01-19 05:52:00,41.7,28.0,29.97,SW,225,0.0,0.0,58,0.00,CLR,SCT,0.00,WeatherDisplay:10.37,2013-01-19 10:52:00,
2013-01-19 05:54:00,41.7,28.0,29.97,SW,225,0.0,0.0,58,0.00,CLR,SCT,0.00,WeatherDisplay:10.37,2013-01-19 10:54:00,
2013-01-19 05:56:00,41.7,28.0,29.97,West,270,0.0,0.0,58,0.00,CLR,SCT,0.00,WeatherDisplay:10.37,2013-01-19 10:56:00,
2013-01-19 05:59:00,41.5,27.8,29.97,SSW,202,0.0,0.0,58,0.00,CLR,SCT,0.00,WeatherDisplay:10.37,2013-01-19 10:59:00,
2013-01-19 06:00:00,41.7,28.0,29.97,WSW,248,0.0,0.0,58,0.00,CLR,SCT,0.00,WeatherDisplay:10.37,2013-01-19 11:00:00,
2013-01-19 06:01:00,41.7,28.0,29.97,WSW,248,0.0,0.0,58,0.00,CLR,SCT,0.00,WeatherDisplay:10.37,2013-01-19 11:01:00,
2013-01-19 06:05:00,41.7,28.0,29.98,WSW,248,6.9,0.0,58,0.00,CLR,SCT,0.00,WeatherDisplay:10.37,2013-01-19 11:05:00,
2013-01-19 06:06:00,41.7,28.0,29.97,WSW,248,0.0,0.0,58,0.00,CLR,SCT,0.00,WeatherDisplay:10.37,2013-01-19 11:06:00,
2013-01-19 06:07:00,41.7,28.0,29.97,WSW,248,0.0,0.0,58,0.00,CLR,SCT,0.00,WeatherDisplay:10.37,2013-01-19 11:07:00,
2013-01-19 06:10:00,41.5,28.3,29.97,SW,225,1.2,1.2,59,0.00,CLR,SCT,0.00,WeatherDisplay:10.37,2013-01-19 11:10:00,
2013-01-19 06:11:00,41.5,28.3,29.97,SW,225,1.2,1.2,59,0.00,CLR,SCT,0.00,WeatherDisplay:10.37,2013-01-19 11:11:00,
2013-01-19 06:12:00,41.5,28.3,29.98,SSE,158,10.4,10.4,59,0.00,CLR,SCT,0.00,WeatherDisplay:10.37,2013-01-19 11:12:00,
2013-01-19 07:47:00,41.2,28.7,29.97,WSW,248,2.3,0.0,61,0.00,CLR,SCT,0.00,WeatherDisplay:10.37,2013-01-19 12:47:00,
2013-01-19 07:48:00,41.2,28.7,29.97,WSW,248,0.0,0.0,61,0.00,CLR,SCT,0.00,WeatherDisplay:10.37,2013-01-19 12:48:00,
2013-01-19 07:49:00,41.2,28.7,29.97,WSW,248,0.0,0.0,61,0.00,CLR,SCT,0.00,WeatherDisplay:10.37,2013-01-19 12:49:00,
2013-01-19 07:50:00,41.2,28.7,29.97,WSW,248,0.0,0.0,61,0.00,CLR,SCT,0.00,WeatherDisplay:10.37,2013-01-19 12:50:00,
2013-01-19 07:54:00,41.0,28.6,29.97,South,180,0.0,0.0,61,0.00,CLR,SCT,0.00,WeatherDisplay:10.37,2013-01-19 12:54:00,
2013-01-19 07:55:00,41.0,28.6,29.97,South,180,0.0,0.0,61,0.00,CLR,SCT,0.00,WeatherDisplay:10.37,2013-01-19 12:55:00,
2013-01-19 07:56:00,41.2,28.7,29.97,SW,225,0.0,0.0,61,0.00,CLR,SCT,0.00,WeatherDisplay:10.37,2013-01-19 12:56:00,
2013-01-19 07:58:00,40.8,28.4,29.97,SW,225,0.0,0.0,61,0.00,CLR,SCT,0.00,WeatherDisplay:10.37,2013-01-19 12:58:00,
2013-01-19 08:00:00,40.8,28.4,29.97,SW,225,2.3,2.3,61,0.00,CLR,SCT,0.00,WeatherDisplay:10.37,2013-01-19 13:00:00,
2013-01-19 08:02:00,41.0,28.6,29.97,SW,225,0.0,0.0,61,0.00,CLR,SCT,0.00,WeatherDisplay:10.37,2013-01-19 13:02:00,
2013-01-19 08:03:00,41.0,28.6,29.97,SW,225,0.0,0.0,61,0.00,CLR,SCT,0.00,WeatherDisplay:10.37,2013-01-19 13:03:00,
2013-01-19 08:05:00,40.8,28.4,29.97,WNW,292,0.0,0.0,61,0.00,CLR,SCT,0.00,WeatherDisplay:10.37,2013-01-19 13:05:00,
2013-01-19 08:08:00,40.8,28.8,29.97,South,180,0.0,0.0,62,0.00,CLR,SCT,0.00,WeatherDisplay:10.37,2013-01-19 13:08:00,
2013-01-19 08:10:00,40.8,28.8,29.97,SW,227,8.0,8.0,62,0.00,CLR,SCT,0.00,WeatherDisplay:10.37,2013-01-19 13:10:00,
2013-01-19 08:11:00,40.8,28.8,29.97,WSW,248,2.3,2.6,62,0.00,CLR,SCT,0.00,WeatherDisplay:10.37,2013-01-19 13:11:00,
2013-01-19 08:14:00,40.8,28.8,29.97,SSW,202,0.0,0.0,62,0.00,CLR,SCT,0.00,WeatherDisplay:10.37,2013-01-19 13:14:00,
2013-01-19 08:15:00,40.8,28.8,29.97,SSW,212,0.0,6.0,62,0.00,CLR,SCT,0.00,WeatherDisplay:10.37,2013-01-19 13:15:00,
2013-01-19 08:19:00,40.8,28.8,29.97,SSW,202,1.2,0.0,62,0.00,CLR,SCT,0.00,WeatherDisplay:10.37,2013-01-19 13:19:00,
2013-01-19 08:20:00,40.8,28.8,29.97,SSW,202,0.0,1.0,62,0.00,CLR,SCT,0.00,WeatherDisplay:10.37,2013-01-19 13:20:00,
2013-01-19 08:21:00,40.8,28.8,29.97,South,180,0.0,0.0,62,0.00,CLR,SCT,0.00,WeatherDisplay:10.37,2013-01-19 13:21:00,
2013-01-19 08:25:00,41.0,29.0,29.97,WNW,292,4.6,0.0,62,0.00,CLR,SCT,0.00,WeatherDisplay:10.37,2013-01-19 13:25:00,
2013-01-19 08:26:00,41.0,29.0,29.97,WNW,292,0.0,0.0,62,0.00,CLR,SCT,0.00,WeatherDisplay:10.37,2013-01-19 13:26:00,
2013-01-19 08:29:00,41.2,29.1,29.97,SW,225,0.0,0.0,62,0.00,CLR,SCT,0.00,WeatherDisplay:10.37,2013-01-19 13:29:00,
2013-01-19 08:30:00,41.2,29.1,29.97,South,187,0.0,0.0,62,0.00,CLR,SCT,0.00,WeatherDisplay:10.37,2013-01-19 13:30:00,
2013-01-19 08:31:00,41.2,29.1,29.97,SW,225,0.0,0.0,62,0.00,CLR,SCT,0.00,WeatherDisplay:10.37,2013-01-19 13:31:00,
2013-01-19 08:34:00,41.0,29.0,29.97,SSE,158,0.0,0.0,62,0.00,CLR,SCT,0.00,WeatherDisplay:10.37,2013-01-19 13:34:00,
2013-01-19 08:35:00,41.0,29.0,29.97,WSW,242,0.0,0.0,62,0.00,CLR,SCT,0.00,WeatherDisplay:10.37,2013-01-19 13:35:00,
2013-01-19 08:40:00,40.8,28.8,29.97,SSW,199,0.0,7.0,62,0.00,CLR,SCT,0.00,WeatherDisplay:10.37,2013-01-19 13:40:00,
2013-01-19 08:41:00,40.8,28.8,29.97,West,270,1.2,1.5,62,0.00,CLR,SCT,0.00,WeatherDisplay:10.37,2013-01-19 13:41:00,
2013-01-19 08:45:00,41.0,29.0,29.97,SSW,202,0.0,0.0,62,0.00,CLR,SCT,0.00,WeatherDisplay:10.37,2013-01-19 13:45:00,
2013-01-19 08:46:00,41.2,29.1,29.97,SW,225,0.0,0.0,62,0.00,CLR,SCT,0.00,WeatherDisplay:10.37,2013-01-19 13:46:00,
2013-01-19 08:49:00,41.2,29.1,29.97,SW,225,0.0,0.0,62,0.00,CLR,SCT,0.00,WeatherDisplay:10.37,2013-01-19 13:49:00,
2013-01-19 08:52:00,41.2,29.1,29.97,SSW,202,2.3,0.0,62,0.00,CLR,SCT,0.00,WeatherDisplay:10.37,2013-01-19 13:52:00,
2013-01-19 08:54:00,41.4,29.3,29.97,WNW,292,0.0,0.0,62,0.00,CLR,SCT,0.00,WeatherDisplay:10.37,2013-01-19 13:54:00,
2013-01-19 08:55:00,41.4,29.3,29.97,SW,224,0.0,2.0,62,0.00,CLR,SCT,0.00,WeatherDisplay:10.37,2013-01-19 13:55:00,
2013-01-19 08:59:00,41.5,29.5,29.97,SSW,202,0.0,0.0,62,0.00,CLR,SCT,0.00,WeatherDisplay:10.37,2013-01-19 13:59:00,
2013-01-19 09:00:00,41.5,29.5,29.97,SW,229,0.0,0.0,62,0.00,CLR,SCT,0.00,WeatherDisplay:10.37,2013-01-19 14:00:00,
2013-01-19 09:01:00,41.5,29.5,29.97,WSW,248,0.0,0.0,62,0.00,CLR,SCT,0.00,WeatherDisplay:10.37,2013-01-19 14:01:00,
2013-01-19 09:03:00,41.7,29.6,29.97,SSW,202,0.0,0.0,62,0.00,CLR,SCT,0.00,WeatherDisplay:10.37,2013-01-19 14:03:00,
2013-01-19 09:05:00,41.9,29.8,29.97,WSW,248,0.0,0.0,62,0.00,CLR,SCT,0.00,WeatherDisplay:10.37,2013-01-19 14:05:00,
2013-01-19 09:06:00,41.9,29.8,29.97,WSW,248,0.0,0.0,62,0.00,CLR,SCT,0.00,WeatherDisplay:10.37,2013-01-19 14:06:00,
2013-01-19 09:07:00,41.9,29.8,29.97,NE,45,0.0,0.0,62,0.00,CLR,SCT,0.00,WeatherDisplay:10.37,2013-01-19 14:07:00,
2013-01-19 09:10:00,42.1,30.0,29.97,SW,225,0.0,0.0,62,0.00,CLR,SCT,0.00,WeatherDisplay:10.37,2013-01-19 14:10:00,
2013-01-19 09:11:00,42.1,30.0,29.97,South,180,0.0,0.0,62,0.00,CLR,SCT,0.00,WeatherDisplay:10.37,2013-01-19 14:11:00,
2013-01-19 09:12:00,42.1,30.0,29.97,South,180,0.0,0.0,62,0.00,CLR,SCT,0.00,WeatherDisplay:10.37,2013-01-19 14:12:00,
2013-01-19 09:16:00,42.4,30.3,29.97,SW,225,0.0,0.0,62,0.00,CLR,SCT,0.00,WeatherDisplay:10.37,2013-01-19 14:16:00,
2013-01-19 09:17:00,42.4,30.3,29.97,SW,225,0.0,0.0,62,0.00,CLR,SCT,0.00,WeatherDisplay:10.37,2013-01-19 14:17:00,
2013-01-19 09:18:00,42.4,30.3,29.97,SW,225,1.2,1.2,62,0.00,CLR,SCT,0.00,WeatherDisplay:10.37,2013-01-19 14:18:00,
2013-01-19 09:20:00,42.4,30.3,29.97,SW,216,1.0,1.0,62,0.00,CLR,SCT,0.00,WeatherDisplay:10.37,2013-01-19 14:20:00,
2013-01-19 09:21:00,42.6,30.1,29.97,West,270,0.0,0.0,61,0.00,CLR,SCT,0.00,WeatherDisplay:10.37,2013-01-19 14:21:00,
2013-01-19 09:23:00,43.0,30.4,29.97,WSW,248,5.8,5.8,61,0.00,CLR,SCT,0.00,WeatherDisplay:10.37,2013-01-19 14:23:00,
2013-01-19 09:25:00,43.0,30.4,29.97,SSW,202,0.0,0.0,61,0.00,CLR,SCT,0.00,WeatherDisplay:10.37,2013-01-19 14:25:00,
2013-01-19 09:26:00,43.2,30.6,29.97,SW,225,3.5,3.5,61,0.00,CLR,SCT,0.00,WeatherDisplay:10.37,2013-01-19 14:26:00,
2013-01-19 09:27:00,43.2,30.6,29.97,SW,225,3.5,3.5,61,0.00,CLR,SCT,0.00,WeatherDisplay:10.37,2013-01-19 14:27:00,
2013-01-19 09:30:00,43.3,30.8,29.98,SW,235,1.0,4.0,61,0.00,CLR,SCT,0.00,WeatherDisplay:10.37,2013-01-19 14:30:00,
2013-01-19 09:31:00,43.5,30.5,29.97,SW,225,0.0,0.0,60,0.00,CLR,SCT,0.00,WeatherDisplay:10.37,2013-01-19 14:31:00,
2013-01-19 09:33:00,43.5,30.5,29.97,SW,225,0.0,0.0,60,0.00,CLR,SCT,0.00,WeatherDisplay:10.37,2013-01-19 14:33:00,
2013-01-19 09:36:00,43.7,30.7,29.98,SW,225,0.0,0.0,60,0.00,CLR,SCT,0.00,WeatherDisplay:10.37,2013-01-19 14:36:00,
2013-01-19 09:37:00,43.9,30.9,29.98,SW,225,1.2,1.2,60,0.00,CLR,SCT,0.00,WeatherDisplay:10.37,2013-01-19 14:37:00,
2013-01-19 09:38:00,43.9,30.9,29.98,SW,225,1.2,1.2,60,0.00,CLR,SCT,0.00,WeatherDisplay:10.37,2013-01-19 14:38:00,
2013-01-19 09:41:00,44.4,31.4,29.98,West,270,0.0,0.0,60,0.00,CLR,SCT,0.00,WeatherDisplay:10.37,2013-01-19 14:41:00,
2013-01-19 09:42:00,44.4,31.4,29.97,West,270,0.0,0.0,60,0.00,CLR,SCT,0.00,WeatherDisplay:10.37,2013-01-19 14:42:00,
2013-01-19 09:43:00,44.6,31.1,29.97,WSW,248,1.2,1.2,59,0.00,CLR,SCT,0.00,WeatherDisplay:10.37,2013-01-19 14:43:00,
2013-01-19 09:45:00,44.8,31.3,29.98,WSW,248,2.3,2.3,59,0.00,CLR,SCT,0.00,WeatherDisplay:10.37,2013-01-19 14:45:00,
2013-01-19 09:47:00,44.8,31.3,29.98,WSW,248,2.3,2.3,59,0.00,CLR,SCT,0.00,WeatherDisplay:10.37,2013-01-19 14:47:00,
2013-01-19 09:48:00,45.0,31.5,29.98,WSW,248,4.6,4.6,59,0.00,CLR,SCT,0.00,WeatherDisplay:10.37,2013-01-19 14:48:00,
2013-01-19 09:49:00,45.0,31.5,29.98,WSW,248,4.6,4.6,59,0.00,CLR,SCT,0.00,WeatherDisplay:10.37,2013-01-19 14:49:00,
2013-01-19 09:52:00,45.5,31.6,29.98,WSW,248,6.3,6.3,58,0.00,CLR,SCT,0.00,WeatherDisplay:10.37,2013-01-19 14:52:00,
2013-01-19 09:54:00,45.7,31.7,29.98,NW,315,1.2,1.2,58,0.00,CLR,SCT,0.00,WeatherDisplay:10.37,2013-01-19 14:54:00,
2013-01-19 09:58:00,45.9,31.9,29.98,WSW,248,2.3,2.4,58,0.00,CLR,SCT,0.00,WeatherDisplay:10.37,2013-01-19 14:58:00,
2013-01-19 09:59:00,46.0,31.6,29.98,SW,225,5.8,6.1,57,0.00,CLR,SCT,0.00,WeatherDisplay:10.37,2013-01-19 14:59:00,
2013-01-19 10:00:00,46.0,31.6,29.98,SW,234,6.0,6.0,57,0.00,CLR,SCT,0.00,WeatherDisplay:10.37,2013-01-19 15:00:00,
2013-01-19 10:01:00,46.2,31.8,29.98,WSW,248,6.9,7.4,57,0.00,CLR,SCT,0.00,WeatherDisplay:10.37,2013-01-19 15:01:00,
2013-01-19 10:05:00,46.6,32.1,29.98,WSW,250,8.0,8.0,57,0.00,CLR,SCT,0.00,WeatherDisplay:10.37,2013-01-19 15:05:00,
2013-01-19 10:06:00,46.8,31.9,29.98,WSW,248,13.8,14.3,56,0.00,CLR,SCT,0.00,WeatherDisplay:10.37,2013-01-19 15:06:00,
2013-01-19 10:09:00,46.9,32.0,29.98,South,180,4.6,4.6,56,0.00,CLR,SCT,0.00,WeatherDisplay:10.37,2013-01-19 15:09:00,
2013-01-19 10:14:00,47.3,32.4,29.99,WNW,292,1.2,1.2,56,0.00,CLR,SCT,0.00,WeatherDisplay:10.37,2013-01-19 15:14:00,
2013-01-19 10:15:00,47.3,32.4,29.99,WNW,292,1.2,1.2,56,0.00,CLR,SCT,0.00,WeatherDisplay:10.37,2013-01-19 15:15:00,
2013-01-19 10:16:00,47.5,32.6,29.98,WSW,248,2.3,2.3,56,0.00,CLR,SCT,0.00,WeatherDisplay:10.37,2013-01-19 15:16:00,
2013-01-19 10:19:00,47.5,32.6,29.98,South,180,2.3,2.3,56,0.00,CLR,SCT,0.00,WeatherDisplay:10.37,2013-01-19 15:19:00,
2013-01-19 10:20:00,47.5,32.6,29.99,South,180,2.3,2.3,56,0.00,CLR,SCT,0.00,WeatherDisplay:10.37,2013-01-19 15:20:00,
2013-01-19 10:21:00,47.5,32.1,29.98,West,270,3.5,3.5,55,0.00,CLR,SCT,0.00,WeatherDisplay:10.37,2013-01-19 15:21:00,
2013-01-19 10:23:00,47.8,32.4,29.98,SSW,202,6.9,6.9,55,0.00,CLR,SCT,0.00,WeatherDisplay:10.37,2013-01-19 15:23:00,
2013-01-19 10:24:00,47.8,32.9,29.98,WSW,248,4.6,4.9,56,0.00,CLR,SCT,0.00,WeatherDisplay:10.37,2013-01-19 15:24:00,
2013-01-19 10:25:00,47.8,32.9,29.98,SW,225,4.6,4.6,56,0.00,CLR,SCT,0.00,WeatherDisplay:10.37,2013-01-19 15:25:00,
2013-01-19 10:26:00,47.8,32.9,29.98,SW,225,2.6,2.6,56,0.00,CLR,SCT,0.00,WeatherDisplay:10.37,2013-01-19 15:26:00,
2013-01-19 10:29:00,48.0,32.6,29.98,South,180,4.6,4.6,55,0.00,CLR,SCT,0.00,WeatherDisplay:10.37,2013-01-19 15:29:00,
2013-01-19 10:30:00,48.0,32.6,29.98,SW,229,5.0,5.0,55,0.00,CLR,SCT,0.00,WeatherDisplay:10.37,2013-01-19 15:30:00,
2013-01-19 10:31:00,48.0,32.6,29.99,WSW,248,0.4,0.4,55,0.00,CLR,SCT,0.00,WeatherDisplay:10.37,2013-01-19 15:31:00,
2013-01-19 10:34:00,48.4,33.4,29.99,SW,227,0.0,0.0,56,0.00,CLR,SCT,0.00,WeatherDisplay:10.37,2013-01-19 15:34:00,
2013-01-19 10:35:00,48.4,33.4,29.99,South,180,0.0,0.0,56,0.00,CLR,SCT,0.00,WeatherDisplay:10.37,2013-01-19 15:35:00,
2013-01-19 10:36:00,48.4,32.9,29.99,West,270,1.5,1.5,55,0.00,CLR,SCT,0.00,WeatherDisplay:10.37,2013-01-19 15:36:00,
2013-01-19 10:37:00,48.4,32.9,29.99,West,270,1.2,1.5,55,0.00,CLR,SCT,0.00,WeatherDisplay:10.37,2013-01-19 15:37:00,
2013-01-19 10:41:00,48.9,33.4,29.99,South,180,2.3,2.3,55,0.00,CLR,SCT,0.00,WeatherDisplay:10.37,2013-01-19 15:41:00,
2013-01-19 10:43:00,48.9,33.4,29.99,South,180,2.3,2.3,55,0.00,CLR,SCT,0.00,WeatherDisplay:10.37,2013-01-19 15:43:00,
2013-01-19 10:44:00,49.1,33.2,29.99,WSW,248,2.3,0.0,54,0.00,CLR,SCT,0.00,WeatherDisplay:10.37,2013-01-19 15:44:00,
2013-01-19 10:45:00,49.1,33.2,29.99,WSW,248,0.0,0.0,54,0.00,CLR,SCT,0.00,WeatherDisplay:10.37,2013-01-19 15:45:00,
2013-01-19 10:47:00,49.3,33.8,29.99,SSE,158,0.0,0.0,55,0.00,CLR,SCT,0.00,WeatherDisplay:10.37,2013-01-19 15:47:00,
2013-01-19 10:49:00,49.6,33.7,29.99,West,270,4.6,4.6,54,0.00,CLR,SCT,0.00,WeatherDisplay:10.37,2013-01-19 15:49:00,
2013-01-19 10:50:00,49.6,33.7,29.99,West,270,0.4,0.4,54,0.00,CLR,SCT,0.00,WeatherDisplay:10.37,2013-01-19 15:50:00,
2013-01-19 10:53:00,50.2,34.2,29.99,WSW,248,6.9,6.9,54,0.00,CLR,SCT,0.00,WeatherDisplay:10.37,2013-01-19 15:53:00,
2013-01-19 10:55:00,50.2,33.7,29.99,SSE,158,1.2,1.2,53,0.00,CLR,SCT,0.00,WeatherDisplay:10.37,2013-01-19 15:55:00,
2013-01-19 10:56:00,50.4,33.9,29.99,West,270,1.2,0.0,53,0.00,CLR,SCT,0.00,WeatherDisplay:10.37,2013-01-19 15:56:00,
2013-01-19 11:00:00,51.4,34.4,30.00,WSW,248,4.6,4.6,52,0.00,CLR,SCT,0.00,WeatherDisplay:10.37,2013-01-19 16:00:00,
2013-01-19 11:02:00,52.5,35.9,29.99,West,270,4.6,0.0,53,0.00,CLR,SCT,0.00,WeatherDisplay:10.37,2013-01-19 16:02:00,
2013-01-19 11:05:00,54.1,35.9,30.00,WSW,248,4.6,4.6,50,0.00,CLR,SCT,0.00,WeatherDisplay:10.37,2013-01-19 16:05:00,
2013-01-19 11:07:00,54.3,35.5,30.00,WSW,248,3.5,3.5,49,0.00,CLR,SCT,0.00,WeatherDisplay:10.37,2013-01-19 16:07:00,
2013-01-19 11:08:00,55.6,36.7,29.99,SW,225,3.5,0.0,49,0.00,CLR,SCT,0.00,WeatherDisplay:10.37,2013-01-19 16:08:00,
2013-01-19 11:10:00,57.0,37.0,30.00,WNW,292,1.2,1.3,47,0.00,CLR,SCT,0.00,WeatherDisplay:10.37,2013-01-19 16:10:00,
2013-01-19 11:11:00,57.0,37.0,30.00,WNW,292,1.3,1.3,47,0.00,CLR,SCT,0.00,WeatherDisplay:10.37,2013-01-19 16:11:00,
2013-01-19 11:13:00,58.3,37.6,29.99,WSW,248,0.0,0.0,46,0.00,CLR,SCT,0.00,WeatherDisplay:10.37,2013-01-19 16:13:00,
2013-01-19 11:14:00,59.4,38.6,30.00,SW,225,0.0,0.0,46,0.00,CLR,SCT,0.00,WeatherDisplay:10.37,2013-01-19 16:14:00,
2013-01-19 11:15:00,59.4,38.6,30.00,SW,225,0.0,0.0,46,0.00,CLR,SCT,0.00,WeatherDisplay:10.37,2013-01-19 16:15:00,
2013-01-19 11:17:00,60.6,38.0,30.00,WSW,248,5.8,5.8,43,0.00,CLR,SCT,0.00,WeatherDisplay:10.37,2013-01-19 16:17:00,
2013-01-19 11:19:00,60.6,38.0,30.00,SSW,202,3.5,3.5,43,0.00,CLR,SCT,0.00,WeatherDisplay:10.37,2013-01-19 16:19:00,
2013-01-19 11:22:00,61.2,38.5,30.00,WSW,248,4.6,4.9,43,0.00,CLR,SCT,0.00,WeatherDisplay:10.37,2013-01-19 16:22:00,
2013-01-19 11:23:00,61.2,37.9,30.00,West,270,7.4,7.4,42,0.00,CLR,SCT,0.00,WeatherDisplay:10.37,2013-01-19 16:23:00,
2013-01-19 11:24:00,61.3,38.6,30.00,SSE,158,0.0,0.2,43,0.00,CLR,SCT,0.00,WeatherDisplay:10.37,2013-01-19 16:24:00,
2013-01-19 11:27:00,61.2,37.9,29.99,WSW,248,3.5,3.8,42,0.00,CLR,SCT,0.00,WeatherDisplay:10.37,2013-01-19 16:27:00,
2013-01-19 11:29:00,61.3,38.0,29.99,WSW,248,4.6,4.6,42,0.00,CLR,SCT,0.00,WeatherDisplay:10.37,2013-01-19 16:29:00,
2013-01-19 11:30:00,61.3,38.0,29.99,WSW,248,1.2,1.2,42,0.00,CLR,SCT,0.00,WeatherDisplay:10.37,2013-01-19 16:30:00,
2013-01-19 11:34:00,62.4,38.4,29.99,WSW,248,10.4,10.4,41,0.00,CLR,SCT,0.00,WeatherDisplay:10.37,2013-01-19 16:34:00,
2013-01-19 11:35:00,62.4,38.4,29.99,SW,233,10.0,10.0,41,0.00,CLR,SCT,0.00,WeatherDisplay:10.37,2013-01-19 16:35:00,
2013-01-19 11:40:00,61.9,38.5,29.99,WSW,241,3.0,5.0,42,0.00,CLR,SCT,0.00,WeatherDisplay:10.37,2013-01-19 16:40:00,
2013-01-19 11:45:00,62.2,38.2,29.99,SSW,202,5.8,5.8,41,0.00,CLR,SCT,0.00,WeatherDisplay:10.37,2013-01-19 16:45:00,
2013-01-19 11:46:00,62.2,38.8,29.99,NNW,338,5.8,0.0,42,0.00,CLR,SCT,0.00,WeatherDisplay:10.37,2013-01-19 16:46:00,
2013-01-19 11:50:00,62.8,38.7,29.99,SSW,202,4.6,4.6,41,0.00,CLR,SCT,0.00,WeatherDisplay:10.37,2013-01-19 16:50:00,
2013-01-19 11:52:00,62.8,39.3,29.99,West,270,0.0,0.4,42,0.00,CLR,SCT,0.00,WeatherDisplay:10.37,2013-01-19 16:52:00,
2013-01-19 11:57:00,62.8,38.7,29.98,WSW,248,8.1,8.1,41,0.00,CLR,SCT,0.00,WeatherDisplay:10.37,2013-01-19 16:57:00,
2013-01-19 11:59:00,62.2,38.2,29.98,SSW,202,6.9,6.9,41,0.00,CLR,SCT,0.00,WeatherDisplay:10.37,2013-01-19 16:59:00,
2013-01-19 12:00:00,62.2,38.2,29.98,WSW,237,7.0,9.0,41,0.00,CLR,SCT,0.00,WeatherDisplay:10.37,2013-01-19 17:00:00,
2013-01-19 12:04:00,61.5,37.6,29.98,West,270,3.5,3.5,41,0.00,CLR,SCT,0.00,WeatherDisplay:10.37,2013-01-19 17:04:00,
2013-01-19 12:06:00,61.5,38.2,29.98,West,270,1.5,1.5,42,0.00,CLR,SCT,0.00,WeatherDisplay:10.37,2013-01-19 17:06:00,
2013-01-19 12:07:00,61.3,38.0,29.98,West,270,1.2,0.0,42,0.00,CLR,SCT,0.00,WeatherDisplay:10.37,2013-01-19 17:07:00,
2013-01-19 12:09:00,61.3,38.6,29.98,NW,315,0.0,0.0,43,0.00,CLR,SCT,0.00,WeatherDisplay:10.37,2013-01-19 17:09:00,
2013-01-19 12:10:00,61.3,38.6,29.98,West,259,0.0,2.0,43,0.00,CLR,SCT,0.00,WeatherDisplay:10.37,2013-01-19 17:10:00,
2013-01-19 12:11:00,61.5,38.8,29.98,West,270,0.0,0.0,43,0.00,CLR,SCT,0.00,WeatherDisplay:10.37,2013-01-19 17:11:00,
2013-01-19 12:17:00,62.2,38.8,29.98,WSW,248,4.6,4.6,42,0.00,CLR,SCT,0.00,WeatherDisplay:10.37,2013-01-19 17:17:00,
2013-01-19 12:18:00,61.9,38.5,29.98,WSW,248,6.9,7.4,42,0.00,CLR,SCT,0.00,WeatherDisplay:10.37,2013-01-19 17:18:00,
2013-01-19 12:23:00,61.2,37.9,29.97,SW,225,5.8,5.8,42,0.00,CLR,SCT,0.00,WeatherDisplay:10.37,2013-01-19 17:23:00,
2013-01-19 12:25:00,61.0,37.7,29.97,West,270,9.2,9.2,42,0.00,CLR,SCT,0.00,WeatherDisplay:10.37,2013-01-19 17:25:00,
2013-01-19 12:29:00,60.4,37.8,29.97,WNW,292,3.5,3.5,43,0.00,CLR,SCT,0.00,WeatherDisplay:10.37,2013-01-19 17:29:00,
2013-01-19 12:30:00,60.4,37.8,29.96,SW,225,3.5,4.0,43,0.00,CLR,SCT,0.00,WeatherDisplay:10.37,2013-01-19 17:30:00,
2013-01-19 12:35:00,60.6,38.0,29.96,SW,225,4.6,4.6,43,0.00,CLR,SCT,0.00,WeatherDisplay:10.37,2013-01-19 17:35:00,
2013-01-19 12:37:00,60.6,37.4,29.96,WSW,248,11.5,11.5,42,0.00,CLR,SCT,0.00,WeatherDisplay:10.37,2013-01-19 17:37:00,
2013-01-19 12:42:00,60.4,37.8,29.96,SSE,158,9.2,9.2,43,0.00,CLR,SCT,0.00,WeatherDisplay:10.37,2013-01-19 17:42:00,
2013-01-19 12:47:00,61.2,38.5,29.96,WSW,248,2.3,2.4,43,0.00,CLR,SCT,0.00,WeatherDisplay:10.37,2013-01-19 17:47:00,
2013-01-19 12:49:00,61.5,38.2,29.96,WSW,248,4.9,4.9,42,0.00,CLR,SCT,0.00,WeatherDisplay:10.37,2013-01-19 17:49:00,
2013-01-19 12:53:00,61.5,38.8,29.96,NW,315,0.0,0.0,43,0.00,CLR,SCT,0.00,WeatherDisplay:10.37,2013-01-19 17:53:00,
2013-01-19 12:55:00,61.3,38.0,29.96,West,270,0.0,0.0,42,0.00,CLR,SCT,0.00,WeatherDisplay:10.37,2013-01-19 17:55:00,
2013-01-19 12:58:00,61.3,38.6,29.95,West,270,2.6,2.6,43,0.00,CLR,SCT,0.00,WeatherDisplay:10.37,2013-01-19 17:58:00,
2013-01-19 13:03:00,60.3,37.7,29.95,WSW,248,9.2,9.2,43,0.00,CLR,SCT,0.00,WeatherDisplay:10.37,2013-01-19 18:03:00,
2013-01-19 13:09:00,59.7,37.8,29.95,NW,315,1.2,1.2,44,0.00,CLR,SCT,0.00,WeatherDisplay:10.37,2013-01-19 18:09:00,
2013-01-19 13:10:00,59.4,37.4,29.95,West,270,1.3,1.3,44,0.00,CLR,SCT,0.00,WeatherDisplay:10.37,2013-01-19 18:10:00,
2013-01-19 13:15:00,59.0,37.7,29.94,South,180,3.5,3.5,45,0.00,CLR,SCT,0.00,WeatherDisplay:10.37,2013-01-19 18:15:00,
2013-01-19 13:20:00,58.8,38.1,29.94,South,180,2.3,2.6,46,0.00,CLR,SCT,0.00,WeatherDisplay:10.37,2013-01-19 18:20:00,
2013-01-19 13:21:00,58.8,38.1,29.94,South,180,2.3,2.6,46,0.00,CLR,SCT,0.00,WeatherDisplay:10.37,2013-01-19 18:21:00,
2013-01-19 13:27:00,58.6,37.3,29.93,WNW,292,12.7,12.7,45,0.00,CLR,SCT,0.00,WeatherDisplay:10.37,2013-01-19 18:27:00,
2013-01-19 13:32:00,58.5,37.7,29.93,SW,225,9.2,9.2,46,0.00,CLR,SCT,0.00,WeatherDisplay:10.37,2013-01-19 18:32:00,
2013-01-19 13:33:00,58.6,37.3,29.93,SW,225,8.1,8.1,45,0.00,CLR,SCT,0.00,WeatherDisplay:10.37,2013-01-19 18:33:00,
2013-01-19 13:37:00,58.6,37.3,29.93,WSW,248,2.6,2.6,45,0.00,CLR,SCT,0.00,WeatherDisplay:10.37,2013-01-19 18:37:00,
2013-01-19 13:39:00,58.8,38.1,29.93,West,270,5.8,5.8,46,0.00,CLR,SCT,0.00,WeatherDisplay:10.37,2013-01-19 18:39:00,
2013-01-19 13:42:00,59.0,38.2,29.93,West,270,1.2,1.5,46,0.00,CLR,SCT,0.00,WeatherDisplay:10.37,2013-01-19 18:42:00,
2013-01-19 13:44:00,59.0,37.7,29.93,West,270,3.8,3.8,45,0.00,CLR,SCT,0.00,WeatherDisplay:10.37,2013-01-19 18:44:00,
2013-01-19 13:47:00,59.2,37.8,29.92,West,270,4.6,4.9,45,0.00,CLR,SCT,0.00,WeatherDisplay:10.37,2013-01-19 18:47:00,
2013-01-19 13:49:00,59.0,38.2,29.92,West,270,4.0,4.0,46,0.00,CLR,SCT,0.00,WeatherDisplay:10.37,2013-01-19 18:49:00,
2013-01-19 13:53:00,59.4,38.0,29.91,WSW,248,2.3,2.3,45,0.00,CLR,SCT,0.00,WeatherDisplay:10.37,2013-01-19 18:53:00,
2013-01-19 13:55:00,59.4,38.0,29.92,WSW,248,2.3,2.3,45,0.00,CLR,SCT,0.00,WeatherDisplay:10.37,2013-01-19 18:55:00,
2013-01-19 13:59:00,59.7,38.3,29.92,South,180,4.6,4.6,45,0.00,CLR,SCT,0.00,WeatherDisplay:10.37,2013-01-19 18:59:00,
2013-01-19 14:00:00,59.7,38.3,29.91,SSW,202,3.5,3.5,45,0.00,CLR,SCT,0.00,WeatherDisplay:10.37,2013-01-19 19:00:00,
2013-01-19 14:04:00,59.7,38.3,29.91,SSW,202,1.3,1.3,45,0.00,CLR,SCT,0.00,WeatherDisplay:10.37,2013-01-19 19:04:00,
2013-01-19 14:05:00,59.7,38.3,29.91,West,270,5.8,5.8,45,0.00,CLR,SCT,0.00,WeatherDisplay:10.37,2013-01-19 19:05:00,
2013-01-19 14:10:00,60.1,38.1,29.91,SW,230,3.0,7.0,44,0.00,CLR,SCT,0.00,WeatherDisplay:10.37,2013-01-19 19:10:00,
2013-01-19 14:15:00,60.4,38.4,29.91,SW,225,2.3,2.3,44,0.00,CLR,SCT,0.00,WeatherDisplay:10.37,2013-01-19 19:15:00,
2013-01-19 14:17:00,60.6,38.6,29.91,WSW,248,1.2,0.0,44,0.00,CLR,SCT,0.00,WeatherDisplay:10.37,2013-01-19 19:17:00,
2013-01-19 14:20:00,60.8,38.1,29.91,SW,225,8.1,8.1,43,0.00,CLR,SCT,0.00,WeatherDisplay:10.37,2013-01-19 19:20:00,
2013-01-19 14:22:00,60.8,38.7,29.91,WSW,248,0.2,0.2,44,0.00,CLR,SCT,0.00,WeatherDisplay:10.37,2013-01-19 19:22:00,
2013-01-19 14:27:00,61.0,38.3,29.90,WSW,248,2.4,2.4,43,0.00,CLR,SCT,0.00,WeatherDisplay:10.37,2013-01-19 19:27:00,
2013-01-19 14:32:00,61.2,39.1,29.90,SSW,202,5.8,5.8,44,0.00,CLR,SCT,0.00,WeatherDisplay:10.37,2013-01-19 19:32:00,
2013-01-19 14:33:00,61.3,38.6,29.90,WSW,248,5.8,5.8,43,0.00,CLR,SCT,0.00,WeatherDisplay:10.37,2013-01-19 19:33:00,
2013-01-19 14:38:00,61.2,38.5,29.90,WSW,248,4.6,4.6,43,0.00,CLR,SCT,0.00,WeatherDisplay:10.37,2013-01-19 19:38:00,
2013-01-19 14:43:00,61.3,38.0,29.90,West,270,5.8,5.8,42,0.00,CLR,SCT,0.00,WeatherDisplay:10.37,2013-01-19 19:43:00,
2013-01-19 14:45:00,61.5,38.8,29.90,West,267,2.0,6.0,43,0.00,CLR,SCT,0.00,WeatherDisplay:10.37,2013-01-19 19:45:00,
2013-01-19 14:48:00,61.5,38.8,29.89,WSW,248,4.6,4.6,43,0.00,CLR,SCT,0.00,WeatherDisplay:10.37,2013-01-19 19:48:00,
2013-01-19 14:50:00,61.5,38.8,29.89,WSW,248,4.0,4.0,43,0.00,CLR,SCT,0.00,WeatherDisplay:10.37,2013-01-19 19:50:00,
2013-01-19 14:53:00,61.7,39.0,29.89,West,270,1.2,1.2,43,0.00,CLR,SCT,0.00,WeatherDisplay:10.37,2013-01-19 19:53:00,
2013-01-19 14:57:00,61.9,39.1,29.89,West,270,0.2,0.2,43,0.00,CLR,SCT,0.00,WeatherDisplay:10.37,2013-01-19 19:57:00,
2013-01-19 15:01:00,62.2,39.5,29.89,NNW,338,0.0,0.0,43,0.00,CLR,SCT,0.00,WeatherDisplay:10.37,2013-01-19 20:01:00,
2013-01-19 15:02:00,62.4,38.4,29.89,SSW,202,6.9,6.9,41,0.00,CLR,SCT,0.00,WeatherDisplay:10.37,2013-01-19 20:02:00,
2013-01-19 15:07:00,62.2,38.8,29.89,West,270,2.3,2.3,42,0.00,CLR,SCT,0.00,WeatherDisplay:10.37,2013-01-19 20:07:00,
2013-01-19 15:09:00,62.4,39.6,29.89,NNW,338,0.0,0.0,43,0.00,CLR,SCT,0.00,WeatherDisplay:10.37,2013-01-19 20:09:00,
2013-01-19 15:13:00,62.4,38.4,29.89,West,270,8.1,8.1,41,0.00,CLR,SCT,0.00,WeatherDisplay:10.37,2013-01-19 20:13:00,
2013-01-19 15:15:00,62.4,38.4,29.89,West,278,3.0,8.0,41,0.00,CLR,SCT,0.00,WeatherDisplay:10.37,2013-01-19 20:15:00,
2013-01-19 15:20:00,62.8,39.3,29.89,WSW,248,6.9,6.9,42,0.00,CLR,SCT,0.00,WeatherDisplay:10.37,2013-01-19 20:20:00,
2013-01-19 15:25:00,62.4,38.4,29.89,NW,315,3.5,3.5,41,0.00,CLR,SCT,0.00,WeatherDisplay:10.37,2013-01-19 20:25:00,
2013-01-19 15:27:00,62.4,38.4,29.88,West,270,5.8,5.8,41,0.00,CLR,SCT,0.00,WeatherDisplay:10.37,2013-01-19 20:27:00,
2013-01-19 15:30:00,62.4,38.4,29.88,North,0,3.5,3.5,41,0.00,CLR,SCT,0.00,WeatherDisplay:10.37,2013-01-19 20:30:00,
2013-01-19 15:33:00,62.4,38.4,29.88,ESE,112,5.8,5.8,41,0.00,CLR,SCT,0.00,WeatherDisplay:10.37,2013-01-19 20:33:00,
2013-01-19 15:36:00,62.4,39.0,29.88,WSW,248,5.8,6.3,42,0.00,CLR,SCT,0.00,WeatherDisplay:10.37,2013-01-19 20:36:00,
2013-01-19 15:39:00,62.4,38.4,29.88,WSW,248,5.8,5.8,41,0.00,CLR,SCT,0.00,WeatherDisplay:10.37,2013-01-19 20:39:00,
2013-01-19 15:41:00,62.4,38.4,29.88,WSW,248,8.1,8.1,41,0.00,CLR,SCT,0.00,WeatherDisplay:10.37,2013-01-19 20:41:00,
2013-01-19 15:44:00,62.4,39.0,29.88,WSW,248,1.3,1.3,42,0.00,CLR,SCT,0.00,WeatherDisplay:10.37,2013-01-19 20:44:00,
2013-01-19 15:46:00,62.8,39.3,29.88,South,180,3.5,3.5,42,0.00,CLR,SCT,0.00,WeatherDisplay:10.37,2013-01-19 20:46:00,
2013-01-19 15:50:00,62.8,38.7,29.88,SW,216,1.0,12.0,41,0.00,CLR,SCT,0.00,WeatherDisplay:10.37,2013-01-19 20:50:00,
2013-01-19 15:53:00,62.8,38.7,29.88,NW,315,11.5,11.5,41,0.00,CLR,SCT,0.00,WeatherDisplay:10.37,2013-01-19 20:53:00,
2013-01-19 15:55:00,62.4,38.4,29.88,SW,224,7.0,12.0,41,0.00,CLR,SCT,0.00,WeatherDisplay:10.37,2013-01-19 20:55:00,
2013-01-19 15:58:00,62.4,38.4,29.88,West,270,0.0,0.0,41,0.00,CLR,SCT,0.00,WeatherDisplay:10.37,2013-01-19 20:58:00,
2013-01-19 16:00:00,62.4,38.4,29.88,WSW,243,0.0,9.0,41,0.00,CLR,SCT,0.00,WeatherDisplay:10.37,2013-01-19 21:00:00,
2013-01-19 16:03:00,62.4,38.4,29.88,WNW,292,5.8,6.3,41,0.00,CLR,SCT,0.00,WeatherDisplay:10.37,2013-01-19 21:03:00,
2013-01-19 16:09:00,62.4,38.4,29.88,SSW,202,3.5,3.5,41,0.00,CLR,SCT,0.00,WeatherDisplay:10.37,2013-01-19 21:09:00,
2013-01-19 16:13:00,62.4,39.0,29.89,WSW,248,4.0,4.0,42,0.00,CLR,SCT,0.00,WeatherDisplay:10.37,2013-01-19 21:13:00,
2013-01-19 16:14:00,62.8,38.7,29.89,WNW,292,3.5,3.5,41,0.00,CLR,SCT,0.00,WeatherDisplay:10.37,2013-01-19 21:14:00,
2013-01-19 16:18:00,62.8,39.3,29.89,West,270,0.0,0.0,42,0.00,CLR,SCT,0.00,WeatherDisplay:10.37,2013-01-19 21:18:00,
2013-01-19 16:21:00,63.0,39.5,29.89,SW,225,0.0,0.0,42,0.00,CLR,SCT,0.00,WeatherDisplay:10.37,2013-01-19 21:21:00,
2013-01-19 16:23:00,63.1,39.7,29.89,NW,315,1.2,1.2,42,0.00,CLR,SCT,0.00,WeatherDisplay:10.37,2013-01-19 21:23:00,
2013-01-19 16:28:00,63.0,38.9,29.89,West,270,1.5,1.5,41,0.00,CLR,SCT,0.00,WeatherDisplay:10.37,2013-01-19 21:28:00,
2013-01-19 16:29:00,63.0,38.9,29.89,West,270,1.5,1.5,41,0.00,CLR,SCT,0.00,WeatherDisplay:10.37,2013-01-19 21:29:00,
2013-01-19 16:34:00,62.8,39.3,29.89,WSW,248,4.6,0.0,42,0.00,CLR,SCT,0.00,WeatherDisplay:10.37,2013-01-19 21:34:00,
2013-01-19 16:35:00,62.6,38.6,29.89,SW,225,6.3,6.3,41,0.00,CLR,SCT,0.00,WeatherDisplay:10.37,2013-01-19 21:35:00,
2013-01-19 16:39:00,62.4,39.0,29.89,WSW,248,2.6,2.6,42,0.00,CLR,SCT,0.00,WeatherDisplay:10.37,2013-01-19 21:39:00,
2013-01-19 16:40:00,62.4,39.0,29.89,WSW,248,2.6,2.6,42,0.00,CLR,SCT,0.00,WeatherDisplay:10.37,2013-01-19 21:40:00,
2013-01-19 16:45:00,62.2,38.8,29.89,WSW,241,3.0,4.0,42,0.00,CLR,SCT,0.00,WeatherDisplay:10.37,2013-01-19 21:45:00,
2013-01-19 16:48:00,62.2,38.8,29.89,WNW,292,2.3,2.3,42,0.00,CLR,SCT,0.00,WeatherDisplay:10.37,2013-01-19 21:48:00,
2013-01-19 16:51:00,62.2,38.8,29.89,WNW,292,2.3,2.3,42,0.00,CLR,SCT,0.00,WeatherDisplay:10.37,2013-01-19 21:51:00,
2013-01-19 16:56:00,61.9,38.5,29.89,SW,225,1.2,1.5,42,0.00,CLR,SCT,0.00,WeatherDisplay:10.37,2013-01-19 21:56:00,
2013-01-19 17:01:00,61.7,38.4,29.89,WSW,248,12.0,12.0,42,0.00,CLR,SCT,0.00,WeatherDisplay:10.37,2013-01-19 22:01:00,
2013-01-19 17:02:00,61.7,38.4,29.89,NW,315,11.5,11.5,42,0.00,CLR,SCT,0.00,WeatherDisplay:10.37,2013-01-19 22:02:00,
2013-01-19 17:07:00,61.5,38.8,29.89,SW,225,1.7,1.7,43,0.00,CLR,SCT,0.00,WeatherDisplay:10.37,2013-01-19 22:07:00,
2013-01-19 17:13:00,61.2,38.5,29.89,WSW,248,8.1,8.1,43,0.00,CLR,SCT,0.00,WeatherDisplay:10.37,2013-01-19 22:13:00,
2013-01-19 17:15:00,61.0,38.3,29.89,West,270,4.9,4.9,43,0.00,CLR,SCT,0.00,WeatherDisplay:10.37,2013-01-19 22:15:00,
2013-01-19 17:18:00,61.0,38.3,29.89,West,270,0.0,0.0,43,0.00,CLR,SCT,0.00,WeatherDisplay:10.37,2013-01-19 22:18:00,
2013-01-19 17:21:00,60.6,38.0,29.89,West,270,0.0,0.0,43,0.00,CLR,SCT,0.00,WeatherDisplay:10.37,2013-01-19 22:21:00,
2013-01-19 17:24:00,60.6,38.0,29.89,West,270,3.5,3.5,43,0.00,CLR,SCT,0.00,WeatherDisplay:10.37,2013-01-19 22:24:00,
2013-01-19 17:28:00,60.4,38.4,29.89,WSW,248,1.2,1.2,44,0.00,CLR,SCT,0.00,WeatherDisplay:10.37,2013-01-19 22:28:00,
2013-01-19 17:30:00,60.4,38.4,29.89,SW,225,1.7,1.7,44,0.00,CLR,SCT,0.00,WeatherDisplay:10.37,2013-01-19 22:30:00,
2013-01-19 17:33:00,60.3,38.2,29.88,SW,225,7.4,7.4,44,0.00,CLR,SCT,0.00,WeatherDisplay:10.37,2013-01-19 22:33:00,
2013-01-19 17:35:00,60.1,38.1,29.89,WSW,248,0.0,0.4,44,0.00,CLR,SCT,0.00,WeatherDisplay:10.37,2013-01-19 22:35:00,
2013-01-19 17:38:00,60.1,37.5,29.89,SSW,202,10.4,10.4,43,0.00,CLR,SCT,0.00,WeatherDisplay:10.37,2013-01-19 22:38:00,
2013-01-19 17:40:00,60.1,38.1,29.89,South,180,1.2,1.2,44,0.00,CLR,SCT,0.00,WeatherDisplay:10.37,2013-01-19 22:40:00,
2013-01-19 17:43:00,59.7,37.8,29.89,West,270,1.2,1.2,44,0.00,CLR,SCT,0.00,WeatherDisplay:10.37,2013-01-19 22:43:00,
2013-01-19 17:45:00,59.7,37.8,29.89,SW,225,0.0,0.0,44,0.00,CLR,SCT,0.00,WeatherDisplay:10.37,2013-01-19 22:45:00,
2013-01-19 17:49:00,59.4,38.0,29.89,SSE,158,2.3,2.3,45,0.00,CLR,SCT,0.00,WeatherDisplay:10.37,2013-01-19 22:49:00,
2013-01-19 17:50:00,59.4,38.0,29.89,SSE,158,2.3,2.3,45,0.00,CLR,SCT,0.00,WeatherDisplay:10.37,2013-01-19 22:50:00,
2013-01-19 17:54:00,59.0,37.7,29.89,SW,225,0.0,0.0,45,0.00,CLR,SCT,0.00,WeatherDisplay:10.37,2013-01-19 22:54:00,
2013-01-19 17:55:00,59.0,37.7,29.89,NW,315,2.3,2.3,45,0.00,CLR,SCT,0.00,WeatherDisplay:10.37,2013-01-19 22:55:00,
2013-01-19 17:59:00,58.6,37.3,29.90,South,180,0.0,0.0,45,0.00,CLR,SCT,0.00,WeatherDisplay:10.37,2013-01-19 22:59:00,
2013-01-19 18:00:00,58.6,37.3,29.89,South,180,0.0,0.0,45,0.00,CLR,SCT,0.00,WeatherDisplay:10.37,2013-01-19 23:00:00,
2013-01-19 18:04:00,58.3,37.0,29.90,SSW,202,1.2,1.2,45,0.00,CLR,SCT,0.00,WeatherDisplay:10.37,2013-01-19 23:04:00,
2013-01-19 18:08:00,58.3,37.6,29.89,West,270,0.0,0.0,46,0.00,CLR,SCT,0.00,WeatherDisplay:10.37,2013-01-19 23:08:00,
2013-01-19 18:09:00,58.3,37.6,29.90,West,270,0.0,0.0,46,0.00,CLR,SCT,0.00,WeatherDisplay:10.37,2013-01-19 23:09:00,
2013-01-19 18:13:00,57.9,37.2,29.90,WSW,248,0.0,0.0,46,0.00,CLR,SCT,0.00,WeatherDisplay:10.37,2013-01-19 23:13:00,
2013-01-19 18:15:00,57.7,37.1,29.90,West,270,0.0,0.0,46,0.00,CLR,SCT,0.00,WeatherDisplay:10.37,2013-01-19 23:15:00,
2013-01-19 18:18:00,57.4,37.3,29.90,South,180,1.2,1.2,47,0.00,CLR,SCT,0.00,WeatherDisplay:10.37,2013-01-19 23:18:00,
2013-01-19 18:20:00,57.4,37.3,29.90,South,180,1.2,1.2,47,0.00,CLR,SCT,0.00,WeatherDisplay:10.37,2013-01-19 23:20:00,
2013-01-19 18:24:00,56.8,36.8,29.90,SSW,202,3.5,3.5,47,0.00,CLR,SCT,0.00,WeatherDisplay:10.37,2013-01-19 23:24:00,
2013-01-19 18:25:00,56.8,36.8,29.90,West,270,0.0,0.0,47,0.00,CLR,SCT,0.00,WeatherDisplay:10.37,2013-01-19 23:25:00,
2013-01-19 18:30:00,56.8,37.3,29.90,SW,214,0.0,0.0,48,0.00,CLR,SCT,0.00,WeatherDisplay:10.37,2013-01-19 23:30:00,
2013-01-19 18:32:00,56.7,36.6,29.90,SW,225,0.0,0.0,47,0.00,CLR,SCT,0.00,WeatherDisplay:10.37,2013-01-19 23:32:00,
2013-01-19 18:34:00,56.3,36.8,29.90,SW,225,0.0,0.0,48,0.00,CLR,SCT,0.00,WeatherDisplay:10.37,2013-01-19 23:34:00,
2013-01-19 18:38:00,55.8,36.4,29.90,WSW,248,0.0,0.0,48,0.00,CLR,SCT,0.00,WeatherDisplay:10.37,2013-01-19 23:38:00,
2013-01-19 18:40:00,55.8,36.4,29.90,WSW,241,0.0,0.0,48,0.00,CLR,SCT,0.00,WeatherDisplay:10.37,2013-01-19 23:40:00,
2013-01-19 18:44:00,55.0,36.2,29.90,SW,225,0.0,0.0,49,0.00,CLR,SCT,0.00,WeatherDisplay:10.37,2013-01-19 23:44:00,
2013-01-19 18:45:00,55.0,36.2,29.90,WSW,248,0.0,0.0,49,0.00,CLR,SCT,0.00,WeatherDisplay:10.37,2013-01-19 23:45:00,
2013-01-19 18:50:00,54.5,35.7,29.90,SW,225,0.0,0.0,49,0.00,CLR,SCT,0.00,WeatherDisplay:10.37,2013-01-19 23:50:00,
2013-01-19 18:51:00,54.1,35.4,29.90,WSW,248,0.0,0.0,49,0.00,CLR,SCT,0.00,WeatherDisplay:10.37,2013-01-19 23:51:00,
2013-01-19 18:57:00,53.4,35.2,29.91,WSW,248,0.0,0.0,50,0.00,CLR,SCT,0.00,WeatherDisplay:10.37,2013-01-19 23:57:00,
2013-01-19 19:02:00,53.1,35.4,29.91,WSW,248,0.0,0.0,51,0.00,CLR,SCT,0.00,WeatherDisplay:10.37,2013-01-20 00:02:00,
2013-01-19 19:03:00,53.1,35.4,29.91,WSW,248,0.0,0.0,51,0.00,CLR,SCT,0.00,WeatherDisplay:10.37,2013-01-20 00:03:00,
2013-01-19 19:07:00,52.5,34.9,29.91,WSW,248,0.0,0.0,51,0.00,CLR,SCT,0.00,WeatherDisplay:10.37,2013-01-20 00:07:00,
2013-01-19 19:08:00,52.2,34.6,29.91,WSW,248,0.0,0.0,51,0.00,CLR,SCT,0.00,WeatherDisplay:10.37,2013-01-20 00:08:00,
2013-01-19 19:13:00,51.6,34.6,29.92,WSW,248,0.0,0.0,52,0.00,CLR,SCT,0.00,WeatherDisplay:10.37,2013-01-20 00:13:00,
2013-01-19 19:15:00,51.4,34.4,29.92,WSW,248,0.0,0.0,52,0.00,CLR,SCT,0.00,WeatherDisplay:10.37,2013-01-20 00:15:00,
2013-01-19 19:18:00,51.1,34.5,29.93,WSW,248,0.0,0.0,53,0.00,CLR,SCT,0.00,WeatherDisplay:10.37,2013-01-20 00:18:00,
2013-01-19 19:20:00,50.9,34.4,29.93,WSW,248,0.0,0.0,53,0.00,CLR,SCT,0.00,WeatherDisplay:10.37,2013-01-20 00:20:00,
2013-01-19 19:23:00,50.4,33.9,29.93,WSW,248,0.0,0.0,53,0.00,CLR,SCT,0.00,WeatherDisplay:10.37,2013-01-20 00:23:00,
2013-01-19 19:26:00,50.2,34.2,29.93,WSW,248,0.0,0.0,54,0.00,CLR,SCT,0.00,WeatherDisplay:10.37,2013-01-20 00:26:00,
2013-01-19 19:28:00,49.8,33.8,29.93,WSW,248,0.0,0.0,54,0.00,CLR,SCT,0.00,WeatherDisplay:10.37,2013-01-20 00:28:00,
2013-01-19 19:32:00,49.5,33.5,29.93,WSW,248,0.0,0.0,54,0.00,CLR,SCT,0.00,WeatherDisplay:10.37,2013-01-20 00:32:00,
2013-01-19 19:34:00,49.5,33.5,29.93,WSW,248,0.0,0.0,54,0.00,CLR,SCT,0.00,WeatherDisplay:10.37,2013-01-20 00:34:00,
2013-01-19 19:37:00,48.9,33.9,29.93,WSW,248,0.0,0.0,56,0.00,CLR,SCT,0.00,WeatherDisplay:10.37,2013-01-20 00:37:00,
2013-01-19 19:39:00,48.7,33.7,29.93,WSW,248,0.0,0.0,56,0.00,CLR,SCT,0.00,WeatherDisplay:10.37,2013-01-20 00:39:00,
2013-01-19 19:43:00,48.2,33.2,29.94,WSW,248,0.0,0.0,56,0.00,CLR,SCT,0.00,WeatherDisplay:10.37,2013-01-20 00:43:00,
2013-01-19 19:44:00,48.2,33.2,29.94,WSW,248,0.0,0.0,56,0.00,CLR,SCT,0.00,WeatherDisplay:10.37,2013-01-20 00:44:00,
2013-01-19 19:49:00,47.5,33.0,29.94,WSW,248,0.0,0.0,57,0.00,CLR,SCT,0.00,WeatherDisplay:10.37,2013-01-20 00:49:00,
2013-01-19 19:54:00,47.3,32.8,29.94,WSW,248,0.0,0.0,57,0.00,CLR,SCT,0.00,WeatherDisplay:10.37,2013-01-20 00:54:00,
2013-01-19 19:59:00,46.9,32.9,29.94,WSW,248,0.0,0.0,58,0.00,CLR,SCT,0.00,WeatherDisplay:10.37,2013-01-20 00:59:00,
2013-01-19 20:00:00,46.9,32.9,29.94,WSW,248,0.0,0.0,58,0.00,CLR,SCT,0.00,WeatherDisplay:10.37,2013-01-20 01:00:00,
2013-01-19 20:04:00,46.2,32.7,29.95,WSW,248,0.0,0.0,59,0.00,CLR,SCT,0.00,WeatherDisplay:10.37,2013-01-20 01:04:00,
2013-01-19 20:09:00,46.0,32.5,29.95,WSW,248,0.0,0.0,59,0.00,CLR,SCT,0.00,WeatherDisplay:10.37,2013-01-20 01:09:00,
2013-01-19 20:11:00,46.0,32.5,29.95,WSW,248,0.0,0.0,59,0.00,CLR,SCT,0.00,WeatherDisplay:10.37,2013-01-20 01:11:00,
2013-01-19 20:15:00,45.5,32.4,29.95,WSW,248,0.0,0.0,60,0.00,CLR,SCT,0.00,WeatherDisplay:10.37,2013-01-20 01:15:00,
2013-01-19 20:18:00,45.3,32.2,29.95,WSW,248,0.0,0.0,60,0.00,CLR,SCT,0.00,WeatherDisplay:10.37,2013-01-20 01:18:00,
2013-01-19 20:20:00,45.1,32.1,29.95,WSW,248,0.0,0.0,60,0.00,CLR,SCT,0.00,WeatherDisplay:10.37,2013-01-20 01:20:00,
2013-01-19 20:25:00,44.8,31.7,29.96,WSW,248,0.0,0.0,60,0.00,CLR,SCT,0.00,WeatherDisplay:10.37,2013-01-20 01:25:00,
2013-01-19 20:30:00,44.4,31.4,29.96,WSW,248,0.0,0.0,60,0.00,CLR,SCT,0.00,WeatherDisplay:10.37,2013-01-20 01:30:00,
2013-01-19 20:35:00,43.7,31.5,29.96,WSW,248,0.0,0.0,62,0.00,CLR,SCT,0.00,WeatherDisplay:10.37,2013-01-20 01:35:00,
2013-01-19 20:37:00,43.5,31.4,29.96,WSW,248,0.0,0.0,62,0.00,CLR,SCT,0.00,WeatherDisplay:10.37,2013-01-20 01:37:00,
2013-01-19 20:40:00,43.3,31.6,29.97,WSW,248,0.0,0.0,63,0.00,CLR,SCT,0.00,WeatherDisplay:10.37,2013-01-20 01:40:00,
2013-01-19 20:43:00,43.0,31.2,29.96,WSW,248,0.0,0.0,63,0.00,CLR,SCT,0.00,WeatherDisplay:10.37,2013-01-20 01:43:00,
2013-01-19 20:45:00,43.0,31.2,29.96,WSW,248,0.0,0.0,63,0.00,CLR,SCT,0.00,WeatherDisplay:10.37,2013-01-20 01:45:00,
2013-01-19 20:48:00,42.6,30.9,29.96,WSW,248,0.0,0.0,63,0.00,CLR,SCT,0.00,WeatherDisplay:10.37,2013-01-20 01:48:00,
2013-01-19 20:51:00,42.6,30.9,29.97,WSW,248,0.0,0.0,63,0.00,CLR,SCT,0.00,WeatherDisplay:10.37,2013-01-20 01:51:00,
2013-01-19 20:53:00,42.4,31.1,29.97,WSW,248,0.0,0.0,64,0.00,CLR,SCT,0.00,WeatherDisplay:10.37,2013-01-20 01:53:00,
2013-01-19 20:56:00,42.4,31.1,29.97,WSW,248,0.0,0.0,64,0.00,CLR,SCT,0.00,WeatherDisplay:10.37,2013-01-20 01:56:00,
2013-01-19 21:01:00,41.7,30.4,29.97,WSW,248,0.0,0.0,64,0.00,CLR,SCT,0.00,WeatherDisplay:10.37,2013-01-20 02:01:00,
2013-01-19 21:03:00,41.7,30.4,29.97,WSW,248,0.0,0.0,64,0.00,CLR,SCT,0.00,WeatherDisplay:10.37,2013-01-20 02:03:00,
2013-01-19 21:07:00,41.4,30.5,29.97,WSW,248,0.0,0.0,65,0.00,CLR,SCT,0.00,WeatherDisplay:10.37,2013-01-20 02:07:00,
2013-01-19 21:12:00,41.2,30.7,29.98,WSW,248,0.0,0.0,66,0.00,CLR,SCT,0.00,WeatherDisplay:10.37,2013-01-20 02:12:00,
2013-01-19 21:13:00,40.8,30.3,29.98,WSW,248,0.0,0.0,66,0.00,CLR,SCT,0.00,WeatherDisplay:10.37,2013-01-20 02:13:00,
2013-01-19 21:18:00,40.6,30.2,29.97,WSW,248,0.0,0.0,66,0.00,CLR,SCT,0.00,WeatherDisplay:10.37,2013-01-20 02:18:00,
2013-01-19 21:19:00,40.5,30.4,29.97,WSW,248,0.0,0.0,67,0.00,CLR,SCT,0.00,WeatherDisplay:10.37,2013-01-20 02:19:00,
2013-01-19 21:23:00,40.3,30.2,29.98,WSW,248,0.0,0.0,67,0.00,CLR,SCT,0.00,WeatherDisplay:10.37,2013-01-20 02:23:00,
2013-01-19 21:24:00,40.1,30.0,29.98,WSW,248,0.0,0.0,67,0.00,CLR,SCT,0.00,WeatherDisplay:10.37,2013-01-20 02:24:00,
2013-01-19 21:29:00,39.9,30.2,29.99,WSW,248,0.0,0.0,68,0.00,CLR,SCT,0.00,WeatherDisplay:10.37,2013-01-20 02:29:00,
2013-01-19 21:30:00,39.9,30.2,29.99,WSW,248,0.0,0.0,68,0.00,CLR,SCT,0.00,WeatherDisplay:10.37,2013-01-20 02:30:00,
2013-01-19 21:34:00,39.7,30.0,29.98,WSW,248,0.0,0.0,68,0.00,CLR,SCT,0.00,WeatherDisplay:10.37,2013-01-20 02:34:00,
2013-01-19 21:37:00,39.6,29.9,29.98,WSW,248,0.0,0.0,68,0.00,CLR,SCT,0.00,WeatherDisplay:10.37,2013-01-20 02:37:00,
2013-01-19 21:40:00,39.4,30.1,29.98,WSW,248,0.0,0.0,69,0.00,CLR,SCT,0.00,WeatherDisplay:10.37,2013-01-20 02:40:00,
2013-01-19 21:45:00,39.2,29.5,29.99,WSW,248,0.0,0.0,68,0.00,CLR,SCT,0.00,WeatherDisplay:10.37,2013-01-20 02:45:00,
2013-01-19 21:47:00,38.8,29.5,29.99,WSW,248,0.0,0.0,69,0.00,CLR,SCT,0.00,WeatherDisplay:10.37,2013-01-20 02:47:00,
2013-01-19 21:51:00,38.8,29.5,29.98,WSW,248,0.0,0.0,69,0.00,CLR,SCT,0.00,WeatherDisplay:10.37,2013-01-20 02:51:00,
2013-01-19 21:53:00,38.7,29.7,29.98,WSW,248,0.0,0.0,70,0.00,CLR,SCT,0.00,WeatherDisplay:10.37,2013-01-20 02:53:00,
2013-01-19 21:56:00,38.3,29.4,29.98,WSW,248,0.0,0.0,70,0.00,CLR,SCT,0.00,WeatherDisplay:10.37,2013-01-20 02:56:00,
2013-01-19 21:58:00,38.1,29.2,29.99,WSW,248,0.0,0.0,70,0.00,CLR,SCT,0.00,WeatherDisplay:10.37,2013-01-20 02:58:00,
2013-01-19 22:02:00,37.9,29.0,29.98,WSW,248,0.0,0.0,70,0.00,CLR,SCT,0.00,WeatherDisplay:10.37,2013-01-20 03:02:00,
2013-01-19 22:04:00,37.9,29.0,29.98,WSW,248,0.0,0.0,70,0.00,CLR,SCT,0.00,WeatherDisplay:10.37,2013-01-20 03:04:00,
2013-01-19 22:07:00,37.8,28.9,29.99,WSW,248,0.0,0.0,70,0.00,CLR,SCT,0.00,WeatherDisplay:10.37,2013-01-20 03:07:00,
2013-01-19 22:11:00,37.6,29.0,29.99,WSW,248,0.0,0.0,71,0.00,CLR,SCT,0.00,WeatherDisplay:10.37,2013-01-20 03:11:00,
2013-01-19 22:15:00,37.4,29.2,29.99,WSW,248,0.0,0.0,72,0.00,CLR,SCT,0.00,WeatherDisplay:10.37,2013-01-20 03:15:00,
2013-01-19 22:17:00,37.2,29.0,29.99,WSW,248,0.0,0.0,72,0.00,CLR,SCT,0.00,WeatherDisplay:10.37,2013-01-20 03:17:00,
2013-01-19 22:20:00,37.2,29.0,29.99,WSW,248,0.0,0.0,72,0.00,CLR,SCT,0.00,WeatherDisplay:10.37,2013-01-20 03:20:00,
2013-01-19 22:22:00,37.2,29.0,29.99,WSW,248,0.0,0.0,72,0.00,CLR,SCT,0.00,WeatherDisplay:10.37,2013-01-20 03:22:00,
2013-01-19 22:27:00,37.0,29.2,29.98,WSW,248,0.0,0.0,73,0.00,CLR,SCT,0.00,WeatherDisplay:10.37,2013-01-20 03:27:00,
2013-01-19 22:28:00,37.0,29.2,29.98,WSW,248,0.0,0.0,73,0.00,CLR,SCT,0.00,WeatherDisplay:10.37,2013-01-20 03:28:00,
2013-01-19 22:33:00,36.9,28.7,29.98,WSW,248,0.0,0.0,72,0.00,CLR,SCT,0.00,WeatherDisplay:10.37,2013-01-20 03:33:00,
2013-01-19 22:34:00,36.9,28.7,29.99,WSW,248,0.0,0.0,72,0.00,CLR,SCT,0.00,WeatherDisplay:10.37,2013-01-20 03:34:00,
2013-01-19 22:38:00,36.5,28.3,29.99,WSW,248,0.0,0.0,72,0.00,CLR,SCT,0.00,WeatherDisplay:10.37,2013-01-20 03:38:00,
2013-01-19 22:39:00,36.5,28.7,29.99,WSW,248,0.0,0.0,73,0.00,CLR,SCT,0.00,WeatherDisplay:10.37,2013-01-20 03:39:00,
2013-01-19 22:45:00,36.3,28.8,29.99,WSW,248,0.0,0.0,74,0.00,CLR,SCT,0.00,WeatherDisplay:10.37,2013-01-20 03:45:00,
2013-01-19 22:50:00,36.1,28.6,29.99,WSW,248,0.0,0.0,74,0.00,CLR,SCT,0.00,WeatherDisplay:10.37,2013-01-20 03:50:00,
2013-01-19 22:52:00,36.1,28.6,29.99,WSW,248,0.0,0.0,74,0.00,CLR,SCT,0.00,WeatherDisplay:10.37,2013-01-20 03:52:00,
2013-01-19 22:56:00,36.1,28.6,29.99,WSW,248,0.0,0.0,74,0.00,CLR,SCT,0.00,WeatherDisplay:10.37,2013-01-20 03:56:00,
2013-01-19 22:57:00,36.1,28.6,29.99,WSW,248,0.0,0.0,74,0.00,CLR,SCT,0.00,WeatherDisplay:10.37,2013-01-20 03:57:00,
2013-01-19 23:01:00,35.8,28.3,29.99,WSW,248,0.0,0.0,74,0.00,CLR,SCT,0.00,WeatherDisplay:10.37,2013-01-20 04:01:00,
2013-01-19 23:02:00,35.8,28.3,29.99,WSW,248,0.0,0.0,74,0.00,CLR,SCT,0.00,WeatherDisplay:10.37,2013-01-20 04:02:00,
2013-01-19 23:07:00,35.4,28.0,29.99,WSW,248,0.0,0.0,74,0.00,CLR,SCT,0.00,WeatherDisplay:10.37,2013-01-20 04:07:00,
2013-01-19 23:08:00,35.4,28.0,29.99,WSW,248,0.0,0.0,74,0.00,CLR,SCT,0.00,WeatherDisplay:10.37,2013-01-20 04:08:00,
2013-01-19 23:12:00,35.2,27.8,29.99,WSW,248,0.0,0.0,74,0.00,CLR,SCT,0.00,WeatherDisplay:10.37,2013-01-20 04:12:00,
2013-01-19 23:13:00,35.2,27.4,29.99,WSW,248,0.0,0.0,73,0.00,CLR,SCT,0.00,WeatherDisplay:10.37,2013-01-20 04:13:00,
2013-01-19 23:18:00,35.1,27.6,30.00,WSW,248,0.0,0.0,74,0.00,CLR,SCT,0.00,WeatherDisplay:10.37,2013-01-20 04:18:00,
2013-01-19 23:20:00,34.9,27.1,30.00,WSW,248,0.0,0.0,73,0.00,CLR,SCT,0.00,WeatherDisplay:10.37,2013-01-20 04:20:00,
2013-01-19 23:24:00,34.5,26.8,30.00,WSW,248,0.0,0.0,73,0.00,CLR,SCT,0.00,WeatherDisplay:10.37,2013-01-20 04:24:00,
2013-01-19 23:26:00,34.5,26.8,30.00,WSW,248,0.0,0.0,73,0.00,CLR,SCT,0.00,WeatherDisplay:10.37,2013-01-20 04:26:00,
2013-01-19 23:30:00,34.5,27.1,30.00,WSW,248,0.0,0.0,74,0.00,CLR,SCT,0.00,WeatherDisplay:10.37,2013-01-20 04:30:00,
2013-01-19 23:32:00,34.5,27.1,30.00,WSW,248,0.0,0.0,74,0.00,CLR,SCT,0.00,WeatherDisplay:10.37,2013-01-20 04:32:00,
2013-01-19 23:35:00,34.3,26.9,30.00,WSW,248,0.0,0.0,74,0.00,CLR,SCT,0.00,WeatherDisplay:10.37,2013-01-20 04:35:00,
2013-01-19 23:37:00,34.3,27.2,30.00,WSW,248,0.0,0.0,75,0.00,CLR,SCT,0.00,WeatherDisplay:10.37,2013-01-20 04:37:00,
2013-01-19 23:41:00,34.0,26.9,30.00,WSW,248,0.0,0.0,75,0.00,CLR,SCT,0.00,WeatherDisplay:10.37,2013-01-20 04:41:00,
2013-01-19 23:43:00,34.0,27.2,30.01,WSW,248,0.0,0.0,76,0.00,CLR,SCT,0.00,WeatherDisplay:10.37,2013-01-20 04:43:00,
2013-01-19 23:47:00,33.8,27.0,30.00,WSW,248,0.0,0.0,76,0.00,CLR,SCT,0.00,WeatherDisplay:10.37,2013-01-20 04:47:00,
2013-01-19 23:48:00,33.6,26.5,30.00,WSW,248,0.0,0.0,75,0.00,CLR,SCT,0.00,WeatherDisplay:10.37,2013-01-20 04:48:00,
2013-01-19 23:52:00,33.6,26.9,30.00,WSW,248,0.0,0.0,76,0.00,CLR,SCT,0.00,WeatherDisplay:10.37,2013-01-20 04:52:00,
2013-01-19 23:53:00,33.6,26.9,30.00,WSW,248,0.0,0.0,76,0.00,CLR,SCT,0.00,WeatherDisplay:10.37,2013-01-20 04:53:00,
2013-01-19 23:57:00,33.4,26.7,30.01,WSW,248,0.0,0.0,76,0.00,CLR,SCT,0.00,WeatherDisplay:10.37,2013-01-20 04:57:00,
2013-01-19 23:59:00,33.4,26.7,30.00,WSW,248,0.0,0.0,76,0.00,CLR,SCT,0.00,WeatherDisplay:10.37,2013-01-20 04:59:00,